Wetterdaten: Mittwoch, 29.06.2016
Datum Zeit Temp. Aussen Temp. o. S. +5cm Feuchte Auss BlattFeu 1 Luftdruck Regen Sonnenschein Regendauer Solar Windben Empfang
29.06.2016 00:00 18,5 C 18,3 C 16,7 C 77 % 0 lf 1010,0 hPa 0,0 l/m 0 min 0 min 0 W/m 6,3 km/h (2 Bft) 93,62 %
29.06.2016 00:02 18,5 C 18,3 C 16,7 C 77 % 0 lf 1010,0 hPa 0,0 l/m 0 min 0 min 0 W/m 6,3 km/h (2 Bft) 97,14 %
29.06.2016 00:06 18,5 C 18,3 C 16,7 C 77 % 0 lf 1010,0 hPa 0,0 l/m 0 min 0 min 0 W/m 6,3 km/h (2 Bft) 96,70 %
29.06.2016 00:08 18,5 C 18,3 C 16,7 C 77 % 0 lf 1010,0 hPa 0,0 l/m 0 min 0 min 0 W/m 8,4 km/h (2 Bft) 93,62 %
29.06.2016 00:10 18,5 C 18,3 C 16,7 C 77 % 2 lf 1010,0 hPa 0,0 l/m 0 min 0 min 0 W/m 4,2 km/h (1 Bft) 95,74 %
29.06.2016 00:12 18,5 C 18,3 C 16,7 C 77 % 3 lf 1009,9 hPa 0,0 l/m 0 min 2 min 0 W/m 0,0 km/h (0 Bft) 95,65 %
29.06.2016 00:14 18,5 C 18,3 C 16,7 C 77 % 1 lf 1009,9 hPa 0,0 l/m 0 min 2 min 0 W/m 2,1 km/h (1 Bft) 97,87 %
29.06.2016 00:16 18,5 C 18,3 C 16,7 C 77 % 0 lf 1009,8 hPa 0,0 l/m 0 min 0 min 0 W/m 10,5 km/h (2 Bft) 97,87 %
29.06.2016 00:18 18,5 C 18,3 C 16,7 C 78 % 0 lf 1009,8 hPa 0,0 l/m 0 min 2 min 0 W/m 8,4 km/h (2 Bft) 91,49 %
29.06.2016 00:20 18,5 C 17,8 C 16,7 C 79 % 1 lf 1009,7 hPa 0,0 l/m 0 min 0 min 0 W/m 6,3 km/h (2 Bft) 93,62 %
29.06.2016 00:22 18,5 C 17,8 C 16,1 C 79 % 0 lf 1009,7 hPa 0,0 l/m 0 min 0 min 0 W/m 6,3 km/h (2 Bft) 93,62 %
29.06.2016 00:24 18,4 C 17,8 C 16,1 C 79 % 13 lf 1009,6 hPa 0,0 l/m 0 min 0 min 0 W/m 6,3 km/h (2 Bft) 95,65 %
29.06.2016 00:26 18,4 C 16,7 C 15,6 C 79 % 15 lf 1009,7 hPa 0,0 l/m 0 min 2 min 0 W/m 2,1 km/h (1 Bft) 95,74 %
29.06.2016 00:28 18,4 C 15,6 C 15,0 C 80 % 15 lf 1009,6 hPa 0,0 l/m 0 min 2 min 0 W/m 0,0 km/h (0 Bft) 95,74 %
29.06.2016 00:30 18,4 C 15,6 C 15,0 C 81 % 15 lf 1009,7 hPa 0,0 l/m 0 min 2 min 0 W/m 0,0 km/h (0 Bft) 97,87 %
29.06.2016 00:32 18,4 C 15,6 C 15,0 C 81 % 15 lf 1009,7 hPa 0,2 l/m 0 min 2 min 0 W/m 8,4 km/h (2 Bft) 97,87 %
29.06.2016 00:34 18,4 C 15,6 C 15,0 C 81 % 15 lf 1009,8 hPa 0,0 l/m 0 min 2 min 0 W/m 10,5 km/h (2 Bft) 97,87 %
29.06.2016 00:36 18,4 C 15,6 C 14,4 C 82 % 15 lf 1009,8 hPa 0,0 l/m 0 min 2 min 0 W/m 12,6 km/h (3 Bft) 98,15 %
29.06.2016 00:38 18,3 C 15,6 C 14,4 C 82 % 15 lf 1009,8 hPa 0,2 l/m 0 min 2 min 0 W/m 10,5 km/h (2 Bft) 97,87 %
29.06.2016 00:40 18,3 C 15,6 C 15,0 C 83 % 15 lf 1010,0 hPa 0,0 l/m 0 min 2 min 0 W/m 10,5 km/h (2 Bft) 97,87 %
29.06.2016 00:42 18,2 C 15,6 C 14,4 C 84 % 15 lf 1010,0 hPa 0,2 l/m 0 min 2 min 0 W/m 14,6 km/h (3 Bft) 95,74 %
29.06.2016 00:44 18,1 C 15,6 C 14,4 C 84 % 15 lf 1010,0 hPa 0,2 l/m 0 min 2 min 0 W/m 12,6 km/h (3 Bft) 97,87 %
29.06.2016 00:46 18,1 C 15,6 C 14,4 C 84 % 15 lf 1010,1 hPa 0,0 l/m 0 min 2 min 0 W/m 20,9 km/h (4 Bft) 95,65 %
29.06.2016 00:48 17,9 C 15,6 C 14,4 C 85 % 15 lf 1010,1 hPa 0,4 l/m 0 min 2 min 0 W/m 16,7 km/h (3 Bft) 95,74 %
29.06.2016 00:50 17,8 C 15,6 C 14,4 C 85 % 15 lf 1010,1 hPa 0,2 l/m 0 min 2 min 0 W/m 10,5 km/h (2 Bft) 95,74 %
29.06.2016 00:52 17,8 C 15,6 C 14,4 C 86 % 15 lf 1010,0 hPa 0,2 l/m 0 min 2 min 0 W/m 20,9 km/h (4 Bft) 97,87 %
29.06.2016 00:54 17,7 C 15,6 C 14,4 C 87 % 15 lf 1010,0 hPa 0,2 l/m 0 min 2 min 0 W/m 25,1 km/h (4 Bft) 97,87 %
29.06.2016 00:56 17,6 C 15,6 C 14,4 C 87 % 15 lf 1010,0 hPa 0,2 l/m 0 min 2 min 0 W/m 16,7 km/h (3 Bft) 97,87 %
29.06.2016 00:58 17,4 C 15,6 C 14,4 C 87 % 15 lf 1010,1 hPa 0,4 l/m 0 min 2 min 0 W/m 18,8 km/h (3 Bft) 95,65 %
29.06.2016 01:00 17,3 C 15,6 C 14,4 C 88 % 15 lf 1010,0 hPa 0,4 l/m 0 min 2 min 0 W/m 20,9 km/h (4 Bft) 97,62 %
29.06.2016 01:02 17,3 C 15,6 C 14,4 C 88 % 15 lf 1009,9 hPa 0,4 l/m 0 min 2 min 0 W/m 18,8 km/h (3 Bft) 98,00 %
29.06.2016 01:04 17,2 C 15,6 C 14,4 C 89 % 15 lf 1009,8 hPa 0,4 l/m 0 min 2 min 0 W/m 14,6 km/h (3 Bft) 100,00 %
29.06.2016 01:06 17,1 C 15,6 C 14,4 C 89 % 15 lf 1009,8 hPa 0,2 l/m 0 min 2 min 0 W/m 14,6 km/h (3 Bft) 100,00 %
29.06.2016 01:08 17,0 C 15,6 C 14,4 C 90 % 15 lf 1009,8 hPa 0,2 l/m 0 min 2 min 0 W/m 12,6 km/h (3 Bft) 97,83 %
29.06.2016 01:10 16,9 C 15,6 C 14,4 C 90 % 15 lf 1009,8 hPa 0,0 l/m 0 min 2 min 0 W/m 23,0 km/h (4 Bft) 97,87 %
29.06.2016 01:12 16,9 C 15,6 C 14,4 C 90 % 15 lf 1009,7 hPa 0,2 l/m 0 min 2 min 0 W/m 23,0 km/h (4 Bft) 100,00 %
29.06.2016 01:14 16,8 C 15,6 C 14,4 C 91 % 15 lf 1009,6 hPa 0,0 l/m 0 min 2 min 0 W/m 14,6 km/h (3 Bft) 100,00 %
29.06.2016 01:16 16,8 C 15,6 C 14,4 C 91 % 15 lf 1009,6 hPa 0,2 l/m 0 min 2 min 0 W/m 10,5 km/h (2 Bft) 100,00 %
29.06.2016 01:18 16,7 C 15,6 C 14,4 C 91 % 15 lf 1009,6 hPa 0,0 l/m 0 min 2 min 0 W/m 10,5 km/h (2 Bft) 95,74 %
29.06.2016 01:20 16,7 C 15,6 C 14,4 C 91 % 15 lf 1009,6 hPa 0,0 l/m 0 min 2 min 0 W/m 12,6 km/h (3 Bft) 95,74 %
29.06.2016 01:22 16,7 C 15,6 C 14,4 C 91 % 15 lf 1009,6 hPa 0,0 l/m 0 min 2 min 0 W/m 12,6 km/h (3 Bft) 95,74 %
29.06.2016 01:24 16,7 C 15,6 C 14,4 C 92 % 15 lf 1009,5 hPa 0,2 l/m 0 min 2 min 0 W/m 6,3 km/h (2 Bft) 97,83 %
29.06.2016 01:26 16,7 C 15,6 C 14,4 C 92 % 15 lf 1009,4 hPa 0,0 l/m 0 min 2 min 0 W/m 8,4 km/h (2 Bft) 95,74 %
29.06.2016 01:28 16,6 C 15,6 C 14,4 C 92 % 15 lf 1009,4 hPa 0,0 l/m 0 min 0 min 0 W/m 10,5 km/h (2 Bft) 97,87 %
29.06.2016 01:30 16,6 C 15,6 C 14,4 C 92 % 15 lf 1009,3 hPa 0,0 l/m 0 min 0 min 0 W/m 10,5 km/h (2 Bft) 97,87 %
29.06.2016 01:32 16,6 C 15,6 C 14,4 C 92 % 15 lf 1009,3 hPa 0,0 l/m 0 min 0 min 0 W/m 12,6 km/h (3 Bft) 97,92 %
29.06.2016 01:34 16,6 C 15,6 C 14,4 C 93 % 15 lf 1009,3 hPa 0,0 l/m 0 min 0 min 0 W/m 10,5 km/h (2 Bft) 95,65 %
29.06.2016 01:36 16,6 C 15,6 C 14,4 C 93 % 15 lf 1009,2 hPa 0,0 l/m 0 min 0 min 0 W/m 12,6 km/h (3 Bft) 98,08 %
29.06.2016 01:38 16,5 C 15,6 C 14,4 C 93 % 15 lf 1009,2 hPa 0,0 l/m 0 min 0 min 0 W/m 12,6 km/h (3 Bft) 95,74 %
29.06.2016 01:40 16,5 C 15,6 C 14,4 C 93 % 15 lf 1009,2 hPa 0,0 l/m 0 min 0 min 0 W/m 8,4 km/h (2 Bft) 95,74 %
29.06.2016 01:42 16,5 C 15,6 C 14,4 C 93 % 15 lf 1009,2 hPa 0,0 l/m 0 min 0 min 0 W/m 14,6 km/h (3 Bft) 95,65 %
29.06.2016 01:44 16,4 C 15,6 C 14,4 C 93 % 15 lf 1009,2 hPa 0,0 l/m 0 min 0 min 0 W/m 8,4 km/h (2 Bft) 97,87 %
29.06.2016 01:46 16,4 C 15,6 C 14,4 C 93 % 15 lf 1009,1 hPa 0,0 l/m 0 min 0 min 0 W/m 10,5 km/h (2 Bft) 97,87 %
29.06.2016 01:48 16,4 C 15,6 C 14,4 C 93 % 15 lf 1009,1 hPa 0,0 l/m 0 min 0 min 0 W/m 8,4 km/h (2 Bft) 93,62 %
29.06.2016 01:50 16,4 C 15,6 C 14,4 C 94 % 15 lf 1009,1 hPa 0,0 l/m 0 min 0 min 0 W/m 12,6 km/h (3 Bft) 97,87 %
29.06.2016 01:52 16,4 C 15,6 C 14,4 C 94 % 15 lf 1009,1 hPa 0,0 l/m 0 min 0 min 0 W/m 12,6 km/h (3 Bft) 95,74 %
29.06.2016 01:54 16,4 C 15,6 C 14,4 C 94 % 15 lf 1009,1 hPa 0,0 l/m 0 min 0 min 0 W/m 8,4 km/h (2 Bft) 97,83 %
29.06.2016 01:56 16,3 C 15,6 C 14,4 C 94 % 15 lf 1009,1 hPa 0,0 l/m 0 min 2 min 0 W/m 10,5 km/h (2 Bft) 95,74 %
29.06.2016 01:58 16,3 C 15,6 C 14,4 C 94 % 15 lf 1009,1 hPa 0,0 l/m 0 min 0 min 0 W/m 10,5 km/h (2 Bft) 95,74 %
29.06.2016 02:00 16,3 C 15,6 C 14,4 C 94 % 15 lf 1009,2 hPa 0,0 l/m 0 min 0 min 0 W/m 8,4 km/h (2 Bft) 97,92 %
29.06.2016 02:02 16,3 C 15,6 C 14,4 C 94 % 15 lf 1009,2 hPa 0,0 l/m 0 min 0 min 0 W/m 8,4 km/h (2 Bft) 93,75 %
29.06.2016 02:04 16,3 C 15,6 C 14,4 C 94 % 15 lf 1009,2 hPa 0,0 l/m 0 min 2 min 0 W/m 10,5 km/h (2 Bft) 95,24 %
29.06.2016 02:06 16,3 C 15,6 C 14,4 C 95 % 15 lf 1009,2 hPa 0,0 l/m 0 min 2 min 0 W/m 14,6 km/h (3 Bft) 98,15 %
29.06.2016 02:08 16,3 C 15,6 C 14,4 C 95 % 15 lf 1009,2 hPa 0,0 l/m 0 min 2 min 0 W/m 20,9 km/h (4 Bft) 97,22 %
29.06.2016 02:10 16,3 C 15,6 C 14,4 C 95 % 15 lf 1009,1 hPa 0,2 l/m 0 min 2 min 0 W/m 23,0 km/h (4 Bft) 97,83 %
29.06.2016 02:12 16,3 C 15,6 C 14,4 C 95 % 15 lf 1009,2 hPa 0,0 l/m 0 min 2 min 0 W/m 18,8 km/h (3 Bft) 94,92 %
29.06.2016 02:14 16,3 C 15,6 C 14,4 C 95 % 15 lf 1009,2 hPa 0,2 l/m 0 min 2 min 0 W/m 27,2 km/h (4 Bft) 100,00 %
29.06.2016 02:16 16,3 C 15,6 C 14,4 C 95 % 15 lf 1009,1 hPa 0,2 l/m 0 min 2 min 0 W/m 29,3 km/h (5 Bft) 93,62 %
29.06.2016 02:18 16,3 C 15,6 C 14,4 C 95 % 15 lf 1009,2 hPa 0,0 l/m 0 min 2 min 0 W/m 27,2 km/h (4 Bft) 97,87 %
29.06.2016 02:20 16,3 C 15,6 C 14,4 C 95 % 15 lf 1009,2 hPa 0,0 l/m 0 min 2 min 0 W/m 20,9 km/h (4 Bft) 97,87 %
29.06.2016 02:22 16,2 C 15,6 C 14,4 C 95 % 15 lf 1009,2 hPa 0,2 l/m 0 min 2 min 0 W/m 27,2 km/h (4 Bft) 97,83 %
29.06.2016 02:24 16,2 C 15,6 C 14,4 C 95 % 15 lf 1009,1 hPa 0,0 l/m 0 min 2 min 0 W/m 27,2 km/h (4 Bft) 96,61 %
29.06.2016 02:26 16,2 C 15,6 C 14,4 C 95 % 15 lf 1009,1 hPa 0,0 l/m 0 min 0 min 0 W/m 23,0 km/h (4 Bft) 97,14 %
29.06.2016 02:28 16,2 C 15,6 C 14,4 C 95 % 15 lf 1009,1 hPa 0,0 l/m 0 min 0 min 0 W/m 20,9 km/h (4 Bft) 97,87 %
29.06.2016 02:30 16,2 C 15,6 C 14,4 C 95 % 15 lf 1009,2 hPa 0,0 l/m 0 min 0 min 0 W/m 25,1 km/h (4 Bft) 97,87 %
29.06.2016 02:32 16,1 C 15,6 C 14,4 C 95 % 15 lf 1009,2 hPa 0,0 l/m 0 min 0 min 0 W/m 18,8 km/h (3 Bft) 93,75 %
29.06.2016 02:34 16,1 C 15,6 C 14,4 C 95 % 15 lf 1009,2 hPa 0,0 l/m 0 min 2 min 0 W/m 27,2 km/h (4 Bft) 93,48 %
29.06.2016 02:36 16,1 C 15,6 C 14,4 C 95 % 15 lf 1009,2 hPa 0,0 l/m 0 min 0 min 0 W/m 29,3 km/h (5 Bft) 96,00 %
29.06.2016 02:38 16,1 C 15,6 C 14,4 C 96 % 15 lf 1009,2 hPa 0,0 l/m 0 min 0 min 0 W/m 27,2 km/h (4 Bft) 97,87 %
29.06.2016 02:40 16,1 C 15,6 C 14,4 C 96 % 15 lf 1009,2 hPa 0,0 l/m 0 min 0 min 0 W/m 14,6 km/h (3 Bft) 94,29 %
29.06.2016 02:42 16,1 C 15,6 C 14,4 C 96 % 15 lf 1009,1 hPa 0,0 l/m 0 min 2 min 0 W/m 25,1 km/h (4 Bft) 100,00 %
29.06.2016 02:44 16,1 C 15,6 C 14,4 C 96 % 15 lf 1009,1 hPa 0,0 l/m 0 min 2 min 0 W/m 16,7 km/h (3 Bft) 97,87 %
29.06.2016 02:46 16,1 C 15,6 C 14,4 C 96 % 15 lf 1009,2 hPa 0,0 l/m 0 min 2 min 0 W/m 14,6 km/h (3 Bft) 97,87 %
29.06.2016 02:48 16,1 C 15,6 C 14,4 C 96 % 15 lf 1009,2 hPa 0,0 l/m 0 min 2 min 0 W/m 18,8 km/h (3 Bft) 97,87 %
29.06.2016 02:50 16,1 C 15,6 C 14,4 C 96 % 15 lf 1009,2 hPa 0,2 l/m 0 min 2 min 0 W/m 18,8 km/h (3 Bft) 100,00 %
29.06.2016 02:52 16,1 C 15,6 C 14,4 C 96 % 15 lf 1009,3 hPa 0,0 l/m 0 min 2 min 0 W/m 20,9 km/h (4 Bft) 100,00 %
29.06.2016 02:54 16,1 C 15,6 C 14,4 C 96 % 15 lf 1009,3 hPa 0,0 l/m 0 min 2 min 0 W/m 18,8 km/h (3 Bft) 100,00 %
29.06.2016 02:56 16,1 C 15,6 C 14,4 C 96 % 15 lf 1009,2 hPa 0,0 l/m 0 min 2 min 0 W/m 18,8 km/h (3 Bft) 95,74 %
29.06.2016 02:58 16,1 C 15,6 C 14,4 C 96 % 15 lf 1009,3 hPa 0,0 l/m 0 min 2 min 0 W/m 14,6 km/h (3 Bft) 97,87 %
29.06.2016 03:00 16,1 C 15,6 C 14,4 C 96 % 15 lf 1009,3 hPa 0,0 l/m 0 min 2 min 0 W/m 12,6 km/h (3 Bft) 98,00 %
29.06.2016 03:02 16,0 C 15,6 C 14,4 C 96 % 15 lf 1009,5 hPa 0,0 l/m 0 min 0 min 0 W/m 20,9 km/h (4 Bft) 96,00 %
29.06.2016 03:04 16,0 C 15,6 C 14,4 C 96 % 15 lf 1009,4 hPa 0,0 l/m 0 min 2 min 0 W/m 16,7 km/h (3 Bft) 97,92 %
29.06.2016 03:06 16,0 C 15,6 C 14,4 C 96 % 15 lf 1009,4 hPa 0,0 l/m 0 min 2 min 0 W/m 14,6 km/h (3 Bft) 94,44 %
29.06.2016 03:08 16,0 C 15,6 C 14,4 C 96 % 15 lf 1009,3 hPa 0,0 l/m 0 min 2 min 0 W/m 10,5 km/h (2 Bft) 93,62 %
29.06.2016 03:10 16,0 C 15,6 C 14,4 C 96 % 15 lf 1009,3 hPa 0,0 l/m 0 min 2 min 0 W/m 10,5 km/h (2 Bft) 97,87 %
29.06.2016 03:12 16,0 C 15,6 C 14,4 C 96 % 15 lf 1009,3 hPa 0,2 l/m 0 min 2 min 0 W/m 12,6 km/h (3 Bft) 95,74 %
29.06.2016 03:14 16,0 C 15,6 C 14,4 C 96 % 15 lf 1009,2 hPa 0,2 l/m 0 min 2 min 0 W/m 10,5 km/h (2 Bft) 89,36 %
29.06.2016 03:16 16,0 C 15,6 C 14,4 C 96 % 15 lf 1009,2 hPa 0,0 l/m 0 min 2 min 0 W/m 8,4 km/h (2 Bft) 91,49 %
29.06.2016 03:18 15,9 C 15,6 C 14,4 C 96 % 15 lf 1009,2 hPa 0,0 l/m 0 min 2 min 0 W/m 10,5 km/h (2 Bft) 93,48 %
29.06.2016 03:20 15,9 C 15,6 C 14,4 C 96 % 15 lf 1009,3 hPa 0,0 l/m 0 min 0 min 0 W/m 10,5 km/h (2 Bft) 93,62 %
29.06.2016 03:22 15,9 C 15,6 C 14,4 C 96 % 15 lf 1009,3 hPa 0,0 l/m 0 min 0 min 0 W/m 10,5 km/h (2 Bft) 93,62 %
29.06.2016 03:24 16,0 C 15,6 C 14,4 C 96 % 15 lf 1009,3 hPa 0,0 l/m 0 min 0 min 0 W/m 8,4 km/h (2 Bft) 93,62 %
29.06.2016 03:26 15,9 C 15,6 C 14,4 C 96 % 15 lf 1009,3 hPa 0,0 l/m 0 min 0 min 0 W/m 10,5 km/h (2 Bft) 91,49 %
29.06.2016 03:28 15,9 C 15,6 C 14,4 C 96 % 15 lf 1009,2 hPa 0,0 l/m 0 min 0 min 0 W/m 8,4 km/h (2 Bft) 89,36 %
29.06.2016 03:30 15,9 C 15,6 C 14,4 C 96 % 15 lf 1009,3 hPa 0,0 l/m 0 min 2 min 0 W/m 8,4 km/h (2 Bft) 93,48 %
29.06.2016 03:32 15,9 C 15,6 C 14,4 C 96 % 15 lf 1009,3 hPa 0,0 l/m 0 min 0 min 0 W/m 8,4 km/h (2 Bft) 91,49 %
29.06.2016 03:34 15,9 C 15,6 C 14,4 C 96 % 15 lf 1009,2 hPa 0,0 l/m 0 min 0 min 0 W/m 6,3 km/h (2 Bft) 93,62 %
29.06.2016 03:36 15,9 C 15,6 C 14,4 C 96 % 15 lf 1009,3 hPa 0,0 l/m 0 min 0 min 0 W/m 10,5 km/h (2 Bft) 93,62 %
29.06.2016 03:38 15,9 C 15,6 C 14,4 C 96 % 15 lf 1009,4 hPa 0,0 l/m 0 min 0 min 0 W/m 8,4 km/h (2 Bft) 91,49 %
29.06.2016 03:40 15,9 C 15,6 C 14,4 C 96 % 15 lf 1009,4 hPa 0,0 l/m 0 min 0 min 0 W/m 6,3 km/h (2 Bft) 91,49 %
29.06.2016 03:42 15,9 C 15,6 C 14,4 C 96 % 15 lf 1009,6 hPa 0,0 l/m 0 min 2 min 0 W/m 8,4 km/h (2 Bft) 86,96 %
29.06.2016 03:44 15,9 C 15,6 C 14,4 C 96 % 15 lf 1009,7 hPa 0,0 l/m 0 min 2 min 0 W/m 14,6 km/h (3 Bft) 97,87 %
29.06.2016 03:46 15,9 C 15,6 C 14,4 C 96 % 15 lf 1009,8 hPa 0,2 l/m 0 min 2 min 0 W/m 16,7 km/h (3 Bft) 97,87 %
29.06.2016 03:48 15,9 C 15,0 C 13,9 C 96 % 15 lf 1009,9 hPa 0,0 l/m 0 min 2 min 0 W/m 18,8 km/h (3 Bft) 97,87 %
29.06.2016 03:50 15,8 C 15,0 C 13,9 C 96 % 15 lf 1009,7 hPa 0,0 l/m 0 min 2 min 0 W/m 16,7 km/h (3 Bft) 95,74 %
29.06.2016 03:52 15,8 C 15,0 C 13,9 C 96 % 15 lf 1009,6 hPa 0,0 l/m 0 min 0 min 0 W/m 10,5 km/h (2 Bft) 97,87 %
29.06.2016 03:54 15,7 C 15,0 C 13,9 C 96 % 15 lf 1009,7 hPa 0,0 l/m 0 min 0 min 0 W/m 4,2 km/h (1 Bft) 97,83 %
29.06.2016 03:56 15,7 C 14,4 C 13,9 C 96 % 15 lf 1009,7 hPa 0,0 l/m 0 min 0 min 0 W/m 8,4 km/h (2 Bft) 95,74 %
29.06.2016 03:58 15,7 C 14,4 C 13,9 C 96 % 15 lf 1009,7 hPa 0,0 l/m 0 min 0 min 0 W/m 10,5 km/h (2 Bft) 97,87 %
29.06.2016 04:00 15,6 C 14,4 C 13,9 C 96 % 15 lf 1009,8 hPa 0,0 l/m 0 min 0 min 0 W/m 6,3 km/h (2 Bft) 94,00 %
29.06.2016 04:05 15,5 C 14,4 C 13,9 C 96 % 15 lf 1009,7 hPa 0,0 l/m 0 min 0 min 0 W/m 4,2 km/h (1 Bft) 100,00 %
29.06.2016 04:06 15,5 C 14,4 C 13,9 C 96 % 15 lf 1009,7 hPa 0,0 l/m 0 min 0 min 0 W/m 6,3 km/h (2 Bft) 86,96 %
29.06.2016 04:08 15,4 C 14,4 C 13,9 C 96 % 15 lf 1009,7 hPa 0,0 l/m 0 min 0 min 0 W/m 8,4 km/h (2 Bft) 97,87 %
29.06.2016 04:10 15,4 C 14,4 C 13,9 C 96 % 15 lf 1009,7 hPa 0,0 l/m 0 min 0 min 0 W/m 10,5 km/h (2 Bft) 93,62 %
29.06.2016 04:12 15,4 C 14,4 C 13,9 C 96 % 15 lf 1009,7 hPa 0,0 l/m 0 min 0 min 0 W/m 6,3 km/h (2 Bft) 95,74 %
29.06.2016 04:14 15,3 C 14,4 C 13,9 C 96 % 15 lf 1009,7 hPa 0,0 l/m 0 min 0 min 0 W/m 6,3 km/h (2 Bft) 97,87 %
29.06.2016 04:16 15,3 C 14,4 C 13,9 C 96 % 15 lf 1009,7 hPa 0,0 l/m 0 min 0 min 0 W/m 4,2 km/h (1 Bft) 100,00 %
29.06.2016 04:18 15,3 C 14,4 C 13,9 C 96 % 15 lf 1009,7 hPa 0,0 l/m 0 min 0 min 0 W/m 2,1 km/h (1 Bft) 97,87 %
29.06.2016 04:20 15,3 C 14,4 C 13,9 C 96 % 15 lf 1009,6 hPa 0,0 l/m 0 min 0 min 0 W/m 2,1 km/h (1 Bft) 97,87 %
29.06.2016 04:22 15,3 C 14,4 C 13,9 C 96 % 15 lf 1009,7 hPa 0,0 l/m 0 min 0 min 0 W/m 4,2 km/h (1 Bft) 97,87 %
29.06.2016 04:24 15,2 C 14,4 C 13,9 C 96 % 15 lf 1009,7 hPa 0,0 l/m 0 min 0 min 0 W/m 2,1 km/h (1 Bft) 100,00 %
29.06.2016 04:26 15,2 C 14,4 C 13,9 C 96 % 15 lf 1009,7 hPa 0,0 l/m 0 min 0 min 0 W/m 2,1 km/h (1 Bft) 100,00 %
29.06.2016 04:28 15,2 C 14,4 C 13,9 C 96 % 15 lf 1009,6 hPa 0,0 l/m 0 min 0 min 0 W/m 2,1 km/h (1 Bft) 93,62 %
29.06.2016 04:30 15,2 C 14,4 C 13,9 C 96 % 15 lf 1009,7 hPa 0,0 l/m 0 min 0 min 0 W/m 4,2 km/h (1 Bft) 97,87 %
29.06.2016 04:32 15,2 C 14,4 C 13,3 C 96 % 15 lf 1009,8 hPa 0,0 l/m 0 min 0 min 0 W/m 4,2 km/h (1 Bft) 95,74 %
29.06.2016 04:34 15,2 C 14,4 C 13,3 C 96 % 15 lf 1009,8 hPa 0,0 l/m 0 min 0 min 0 W/m 2,1 km/h (1 Bft) 100,00 %
29.06.2016 04:36 15,1 C 14,4 C 13,9 C 96 % 15 lf 1009,8 hPa 0,0 l/m 0 min 0 min 0 W/m 2,1 km/h (1 Bft) 97,56 %
29.06.2016 04:38 15,1 C 14,4 C 13,9 C 96 % 15 lf 1009,8 hPa 0,0 l/m 0 min 0 min 0 W/m 2,1 km/h (1 Bft) 97,87 %
29.06.2016 04:40 15,1 C 14,4 C 13,9 C 96 % 15 lf 1009,8 hPa 0,0 l/m 0 min 0 min 0 W/m 0,0 km/h (0 Bft) 97,87 %
29.06.2016 04:42 15,1 C 14,4 C 13,9 C 96 % 15 lf 1009,8 hPa 0,0 l/m 0 min 0 min 0 W/m 0,0 km/h (0 Bft) 93,48 %
29.06.2016 04:44 15,1 C 14,4 C 13,9 C 96 % 15 lf 1009,7 hPa 0,0 l/m 0 min 0 min 0 W/m 4,2 km/h (1 Bft) 95,74 %
29.06.2016 04:46 15,1 C 14,4 C 13,3 C 96 % 15 lf 1009,7 hPa 0,0 l/m 0 min 0 min 0 W/m 6,3 km/h (2 Bft) 95,74 %
29.06.2016 04:48 15,1 C 14,4 C 13,3 C 96 % 15 lf 1009,8 hPa 0,0 l/m 0 min 0 min 0 W/m 4,2 km/h (1 Bft) 95,74 %
29.06.2016 04:50 15,1 C 14,4 C 13,3 C 96 % 15 lf 1009,7 hPa 0,0 l/m 0 min 0 min 0 W/m 6,3 km/h (2 Bft) 95,74 %
29.06.2016 04:52 15,0 C 14,4 C 13,3 C 96 % 15 lf 1009,7 hPa 0,0 l/m 0 min 0 min 0 W/m 6,3 km/h (2 Bft) 93,62 %
29.06.2016 04:54 15,0 C 14,4 C 12,8 C 96 % 15 lf 1009,8 hPa 0,0 l/m 0 min 0 min 0 W/m 8,4 km/h (2 Bft) 93,48 %
29.06.2016 04:56 15,0 C 13,9 C 12,8 C 96 % 15 lf 1009,8 hPa 0,0 l/m 0 min 0 min 0 W/m 6,3 km/h (2 Bft) 97,87 %
29.06.2016 04:58 14,9 C 13,9 C 12,8 C 96 % 15 lf 1009,7 hPa 0,0 l/m 0 min 0 min 0 W/m 6,3 km/h (2 Bft) 97,87 %
29.06.2016 05:00 14,9 C 13,9 C 12,8 C 96 % 15 lf 1009,8 hPa 0,0 l/m 0 min 0 min 0 W/m 4,2 km/h (1 Bft) 95,74 %
29.06.2016 05:02 14,9 C 13,9 C 12,8 C 96 % 15 lf 1009,8 hPa 0,0 l/m 0 min 0 min 0 W/m 4,2 km/h (1 Bft) 95,74 %
29.06.2016 05:04 14,9 C 13,9 C 12,8 C 96 % 15 lf 1009,8 hPa 0,0 l/m 0 min 0 min 0 W/m 6,3 km/h (2 Bft) 95,74 %
29.06.2016 05:06 14,9 C 13,9 C 12,8 C 96 % 15 lf 1009,8 hPa 0,0 l/m 0 min 0 min 0 W/m 6,3 km/h (2 Bft) 95,92 %
29.06.2016 05:08 14,9 C 13,9 C 12,8 C 96 % 15 lf 1009,8 hPa 0,0 l/m 0 min 0 min 0 W/m 8,4 km/h (2 Bft) 95,74 %
29.06.2016 05:10 14,8 C 13,9 C 12,8 C 96 % 15 lf 1009,9 hPa 0,0 l/m 0 min 0 min 1 W/m 10,5 km/h (2 Bft) 93,62 %
29.06.2016 05:12 14,8 C 13,9 C 12,8 C 96 % 15 lf 1009,9 hPa 0,0 l/m 0 min 0 min 7 W/m 12,6 km/h (3 Bft) 93,62 %
29.06.2016 05:14 14,8 C 13,9 C 12,8 C 96 % 15 lf 1009,9 hPa 0,0 l/m 0 min 0 min 5 W/m 12,6 km/h (3 Bft) 93,62 %
29.06.2016 05:16 14,7 C 13,9 C 12,8 C 96 % 15 lf 1009,9 hPa 0,0 l/m 0 min 0 min 5 W/m 12,6 km/h (3 Bft) 91,30 %
29.06.2016 05:18 14,7 C 13,9 C 12,8 C 96 % 15 lf 1010,0 hPa 0,0 l/m 0 min 0 min 6 W/m 16,7 km/h (3 Bft) 91,49 %
29.06.2016 05:20 14,7 C 13,9 C 12,8 C 96 % 15 lf 1010,0 hPa 0,0 l/m 0 min 0 min 7 W/m 14,6 km/h (3 Bft) 95,74 %
29.06.2016 05:22 14,7 C 13,9 C 12,8 C 96 % 15 lf 1010,0 hPa 0,0 l/m 0 min 0 min 8 W/m 14,6 km/h (3 Bft) 97,87 %
29.06.2016 05:24 14,6 C 13,9 C 12,8 C 96 % 15 lf 1010,0 hPa 0,0 l/m 0 min 0 min 9 W/m 12,6 km/h (3 Bft) 91,49 %
29.06.2016 05:26 14,6 C 13,9 C 12,8 C 96 % 15 lf 1010,0 hPa 0,0 l/m 0 min 0 min 9 W/m 14,6 km/h (3 Bft) 93,62 %
29.06.2016 05:28 14,6 C 13,9 C 12,8 C 96 % 15 lf 1010,0 hPa 0,0 l/m 0 min 0 min 10 W/m 14,6 km/h (3 Bft) 95,65 %
29.06.2016 05:30 14,6 C 13,9 C 12,8 C 96 % 15 lf 1010,0 hPa 0,0 l/m 0 min 0 min 11 W/m 12,6 km/h (3 Bft) 93,62 %
29.06.2016 05:32 14,6 C 13,9 C 12,8 C 96 % 15 lf 1010,0 hPa 0,0 l/m 0 min 0 min 12 W/m 16,7 km/h (3 Bft) 95,83 %
29.06.2016 05:34 14,6 C 13,9 C 12,8 C 96 % 15 lf 1010,1 hPa 0,0 l/m 0 min 0 min 14 W/m 23,0 km/h (4 Bft) 93,62 %
29.06.2016 05:36 14,6 C 13,9 C 12,8 C 96 % 15 lf 1010,1 hPa 0,0 l/m 0 min 0 min 15 W/m 20,9 km/h (4 Bft) 97,96 %
29.06.2016 05:38 14,5 C 13,9 C 12,8 C 96 % 15 lf 1010,1 hPa 0,0 l/m 0 min 0 min 17 W/m 23,0 km/h (4 Bft) 97,83 %
29.06.2016 05:40 14,5 C 13,9 C 12,8 C 96 % 15 lf 1010,1 hPa 0,0 l/m 0 min 0 min 18 W/m 23,0 km/h (4 Bft) 95,74 %
29.06.2016 05:42 14,5 C 13,9 C 12,8 C 96 % 15 lf 1010,1 hPa 0,0 l/m 0 min 0 min 18 W/m 16,7 km/h (3 Bft) 97,87 %
29.06.2016 05:44 14,5 C 13,9 C 12,8 C 96 % 15 lf 1010,1 hPa 0,0 l/m 0 min 0 min 18 W/m 14,6 km/h (3 Bft) 97,87 %
29.06.2016 05:46 14,4 C 13,9 C 12,8 C 96 % 15 lf 1010,1 hPa 0,0 l/m 0 min 0 min 18 W/m 12,6 km/h (3 Bft) 93,62 %
29.06.2016 05:48 14,4 C 13,9 C 12,8 C 96 % 15 lf 1010,2 hPa 0,0 l/m 0 min 0 min 20 W/m 12,6 km/h (3 Bft) 91,49 %
29.06.2016 05:50 14,4 C 13,9 C 12,8 C 96 % 15 lf 1010,2 hPa 0,0 l/m 0 min 0 min 21 W/m 23,0 km/h (4 Bft) 97,83 %
29.06.2016 05:52 14,4 C 13,9 C 12,8 C 96 % 15 lf 1010,1 hPa 0,0 l/m 0 min 0 min 24 W/m 16,7 km/h (3 Bft) 95,74 %
29.06.2016 05:54 14,4 C 13,9 C 12,8 C 96 % 15 lf 1010,1 hPa 0,0 l/m 2 min 0 min 27 W/m 23,0 km/h (4 Bft) 97,87 %
29.06.2016 05:56 14,3 C 13,9 C 12,8 C 96 % 15 lf 1010,2 hPa 0,0 l/m 2 min 0 min 32 W/m 16,7 km/h (3 Bft) 97,87 %
29.06.2016 05:58 14,3 C 13,9 C 12,8 C 96 % 15 lf 1010,2 hPa 0,0 l/m 2 min 0 min 43 W/m 20,9 km/h (4 Bft) 97,87 %
29.06.2016 06:00 14,2 C 13,9 C 12,8 C 96 % 15 lf 1010,2 hPa 0,0 l/m 2 min 0 min 47 W/m 16,7 km/h (3 Bft) 95,65 %
29.06.2016 06:02 14,2 C 13,9 C 12,8 C 96 % 15 lf 1010,2 hPa 0,0 l/m 2 min 0 min 72 W/m 18,8 km/h (3 Bft) 97,87 %
29.06.2016 06:04 14,2 C 13,9 C 12,8 C 96 % 15 lf 1010,3 hPa 0,0 l/m 2 min 0 min 73 W/m 18,8 km/h (3 Bft) 97,87 %
29.06.2016 06:06 14,2 C 13,9 C 12,8 C 96 % 15 lf 1010,3 hPa 0,0 l/m 2 min 0 min 59 W/m 16,7 km/h (3 Bft) 97,56 %
29.06.2016 06:08 14,2 C 13,9 C 12,8 C 96 % 15 lf 1010,3 hPa 0,0 l/m 2 min 0 min 43 W/m 16,7 km/h (3 Bft) 93,62 %
29.06.2016 06:10 14,2 C 13,9 C 12,8 C 96 % 15 lf 1010,4 hPa 0,0 l/m 0 min 0 min 40 W/m 12,6 km/h (3 Bft) 95,74 %
29.06.2016 06:12 14,2 C 13,9 C 12,8 C 96 % 15 lf 1010,3 hPa 0,0 l/m 0 min 0 min 36 W/m 16,7 km/h (3 Bft) 95,74 %
29.06.2016 06:14 14,2 C 13,9 C 12,8 C 96 % 15 lf 1010,4 hPa 0,0 l/m 0 min 0 min 23 W/m 14,6 km/h (3 Bft) 97,87 %
29.06.2016 06:16 14,2 C 13,9 C 12,8 C 96 % 15 lf 1010,3 hPa 0,0 l/m 0 min 0 min 21 W/m 16,7 km/h (3 Bft) 95,65 %
29.06.2016 06:18 14,2 C 13,3 C 12,2 C 96 % 15 lf 1010,4 hPa 0,0 l/m 0 min 0 min 22 W/m 27,2 km/h (4 Bft) 97,87 %
29.06.2016 06:20 14,2 C 13,3 C 12,2 C 96 % 15 lf 1010,4 hPa 0,0 l/m 0 min 0 min 24 W/m 27,2 km/h (4 Bft) 95,74 %
29.06.2016 06:22 14,2 C 13,3 C 12,2 C 96 % 15 lf 1010,4 hPa 0,0 l/m 0 min 0 min 26 W/m 25,1 km/h (4 Bft) 97,87 %
29.06.2016 06:24 14,2 C 13,3 C 12,2 C 96 % 15 lf 1010,4 hPa 0,0 l/m 0 min 0 min 36 W/m 23,0 km/h (4 Bft) 95,74 %
29.06.2016 06:26 14,1 C 13,3 C 12,2 C 96 % 15 lf 1010,5 hPa 0,0 l/m 0 min 0 min 61 W/m 23,0 km/h (4 Bft) 97,87 %
29.06.2016 06:28 14,0 C 13,3 C 12,2 C 96 % 15 lf 1010,4 hPa 0,0 l/m 2 min 0 min 104 W/m 20,9 km/h (4 Bft) 97,83 %
29.06.2016 06:30 13,9 C 13,3 C 12,2 C 96 % 15 lf 1010,4 hPa 0,0 l/m 2 min 0 min 122 W/m 20,9 km/h (4 Bft) 95,74 %
29.06.2016 06:32 13,9 C 13,3 C 12,2 C 96 % 15 lf 1010,4 hPa 0,0 l/m 2 min 0 min 116 W/m 23,0 km/h (4 Bft) 100,00 %
29.06.2016 06:34 13,9 C 13,3 C 12,2 C 96 % 15 lf 1010,5 hPa 0,0 l/m 2 min 0 min 80 W/m 25,1 km/h (4 Bft) 100,00 %
29.06.2016 06:36 13,8 C 13,3 C 12,2 C 96 % 15 lf 1010,5 hPa 0,0 l/m 2 min 0 min 109 W/m 20,9 km/h (4 Bft) 96,08 %
29.06.2016 06:38 13,8 C 13,3 C 12,2 C 96 % 15 lf 1010,5 hPa 0,0 l/m 2 min 0 min 82 W/m 20,9 km/h (4 Bft) 95,74 %
29.06.2016 06:40 13,8 C 13,3 C 12,2 C 96 % 15 lf 1010,5 hPa 0,0 l/m 2 min 0 min 94 W/m 25,1 km/h (4 Bft) 95,74 %
29.06.2016 06:42 13,7 C 13,3 C 12,2 C 95 % 15 lf 1010,5 hPa 0,0 l/m 0 min 0 min 66 W/m 25,1 km/h (4 Bft) 97,87 %
29.06.2016 06:44 13,7 C 13,3 C 12,2 C 95 % 14 lf 1010,6 hPa 0,0 l/m 0 min 0 min 74 W/m 16,7 km/h (3 Bft) 100,00 %
29.06.2016 06:46 13,7 C 13,3 C 12,2 C 95 % 13 lf 1010,6 hPa 0,0 l/m 0 min 0 min 66 W/m 23,0 km/h (4 Bft) 100,00 %
29.06.2016 06:48 13,7 C 13,3 C 12,2 C 95 % 13 lf 1010,8 hPa 0,0 l/m 0 min 0 min 72 W/m 18,8 km/h (3 Bft) 97,83 %
29.06.2016 06:50 13,7 C 13,3 C 12,8 C 95 % 12 lf 1010,7 hPa 0,0 l/m 0 min 0 min 85 W/m 16,7 km/h (3 Bft) 100,00 %
29.06.2016 06:52 13,7 C 13,3 C 12,8 C 95 % 12 lf 1010,7 hPa 0,0 l/m 0 min 0 min 63 W/m 16,7 km/h (3 Bft) 95,74 %
29.06.2016 06:54 13,7 C 13,3 C 12,8 C 95 % 10 lf 1010,7 hPa 0,0 l/m 0 min 0 min 62 W/m 27,2 km/h (4 Bft) 100,00 %
29.06.2016 06:56 13,7 C 13,3 C 12,8 C 95 % 10 lf 1010,8 hPa 0,0 l/m 0 min 0 min 62 W/m 18,8 km/h (3 Bft) 100,00 %
29.06.2016 06:58 13,7 C 13,3 C 12,8 C 95 % 9 lf 1010,9 hPa 0,0 l/m 0 min 0 min 58 W/m 16,7 km/h (3 Bft) 97,87 %
29.06.2016 07:00 13,7 C 13,3 C 12,8 C 95 % 15 lf 1011,0 hPa 0,0 l/m 0 min 0 min 61 W/m 31,4 km/h (5 Bft) 93,48 %
29.06.2016 07:02 13,7 C 13,3 C 12,8 C 95 % 15 lf 1010,9 hPa 0,0 l/m 0 min 0 min 62 W/m 18,8 km/h (3 Bft) 93,62 %
29.06.2016 07:04 13,7 C 13,9 C 12,8 C 95 % 15 lf 1010,9 hPa 0,0 l/m 0 min 0 min 63 W/m 16,7 km/h (3 Bft) 95,74 %
29.06.2016 07:06 13,8 C 13,9 C 12,8 C 94 % 15 lf 1011,0 hPa 0,0 l/m 0 min 0 min 73 W/m 18,8 km/h (3 Bft) 95,12 %
29.06.2016 07:08 13,8 C 13,3 C 12,8 C 94 % 15 lf 1011,0 hPa 0,0 l/m 0 min 0 min 74 W/m 18,8 km/h (3 Bft) 93,62 %
29.06.2016 07:10 13,8 C 13,9 C 12,8 C 94 % 15 lf 1011,0 hPa 0,0 l/m 0 min 0 min 65 W/m 16,7 km/h (3 Bft) 93,62 %
29.06.2016 07:12 13,8 C 13,9 C 12,8 C 94 % 15 lf 1011,0 hPa 0,0 l/m 0 min 0 min 82 W/m 12,6 km/h (3 Bft) 95,74 %
29.06.2016 07:14 13,8 C 13,9 C 12,8 C 94 % 15 lf 1011,1 hPa 0,0 l/m 0 min 0 min 68 W/m 12,6 km/h (3 Bft) 95,65 %
29.06.2016 07:16 13,8 C 13,9 C 12,8 C 94 % 15 lf 1011,0 hPa 0,0 l/m 0 min 0 min 43 W/m 20,9 km/h (4 Bft) 95,74 %
29.06.2016 07:18 13,9 C 13,3 C 12,8 C 94 % 15 lf 1011,0 hPa 0,0 l/m 0 min 0 min 34 W/m 20,9 km/h (4 Bft) 91,49 %
29.06.2016 07:20 13,8 C 13,3 C 12,8 C 94 % 15 lf 1011,1 hPa 0,0 l/m 0 min 0 min 34 W/m 23,0 km/h (4 Bft) 95,74 %
29.06.2016 07:22 13,9 C 13,3 C 12,8 C 94 % 15 lf 1011,1 hPa 0,0 l/m 0 min 0 min 35 W/m 18,8 km/h (3 Bft) 93,62 %
29.06.2016 07:24 13,9 C 13,3 C 12,8 C 94 % 15 lf 1011,1 hPa 0,0 l/m 0 min 0 min 52 W/m 12,6 km/h (3 Bft) 97,87 %
29.06.2016 07:26 13,9 C 13,3 C 12,8 C 94 % 15 lf 1011,1 hPa 0,0 l/m 0 min 0 min 66 W/m 25,1 km/h (4 Bft) 93,48 %
29.06.2016 07:28 13,9 C 13,9 C 12,8 C 94 % 14 lf 1011,1 hPa 0,0 l/m 0 min 0 min 91 W/m 23,0 km/h (4 Bft) 95,74 %
29.06.2016 07:30 13,9 C 13,9 C 13,3 C 93 % 13 lf 1011,1 hPa 0,0 l/m 0 min 0 min 113 W/m 16,7 km/h (3 Bft) 97,87 %
29.06.2016 07:32 13,9 C 13,9 C 13,3 C 93 % 12 lf 1011,1 hPa 0,0 l/m 0 min 0 min 117 W/m 18,8 km/h (3 Bft) 93,75 %
29.06.2016 07:34 13,9 C 13,9 C 13,3 C 93 % 10 lf 1011,0 hPa 0,0 l/m 0 min 0 min 110 W/m 14,6 km/h (3 Bft) 95,74 %
29.06.2016 07:36 13,9 C 13,9 C 13,3 C 93 % 6 lf 1011,0 hPa 0,0 l/m 0 min 0 min 112 W/m 18,8 km/h (3 Bft) 96,08 %
29.06.2016 07:38 13,9 C 13,9 C 13,3 C 93 % 5 lf 1011,1 hPa 0,0 l/m 0 min 0 min 104 W/m 12,6 km/h (3 Bft) 95,74 %
29.06.2016 07:40 13,9 C 13,9 C 13,3 C 93 % 3 lf 1011,1 hPa 0,0 l/m 0 min 0 min 96 W/m 29,3 km/h (5 Bft) 93,62 %
29.06.2016 07:42 13,9 C 13,9 C 13,3 C 93 % 1 lf 1011,0 hPa 0,0 l/m 0 min 0 min 103 W/m 16,7 km/h (3 Bft) 93,62 %
29.06.2016 07:44 13,9 C 13,9 C 13,3 C 93 % 0 lf 1011,0 hPa 0,0 l/m 0 min 0 min 104 W/m 27,2 km/h (4 Bft) 91,49 %
29.06.2016 07:46 13,9 C 13,9 C 13,3 C 93 % 0 lf 1011,0 hPa 0,0 l/m 0 min 0 min 105 W/m 20,9 km/h (4 Bft) 93,62 %
29.06.2016 07:48 14,0 C 13,9 C 13,3 C 93 % 0 lf 1011,1 hPa 0,0 l/m 0 min 0 min 118 W/m 27,2 km/h (4 Bft) 93,48 %
29.06.2016 07:50 14,0 C 13,9 C 13,3 C 92 % 0 lf 1011,1 hPa 0,0 l/m 0 min 0 min 124 W/m 18,8 km/h (3 Bft) 95,74 %
29.06.2016 07:52 14,1 C 13,9 C 13,3 C 92 % 0 lf 1011,1 hPa 0,0 l/m 0 min 0 min 120 W/m 14,6 km/h (3 Bft) 93,62 %
29.06.2016 07:54 14,1 C 13,9 C 13,3 C 92 % 0 lf 1011,1 hPa 0,0 l/m 0 min 0 min 94 W/m 25,1 km/h (4 Bft) 95,74 %
29.06.2016 07:56 14,1 C 13,9 C 13,3 C 92 % 0 lf 1011,1 hPa 0,0 l/m 0 min 0 min 86 W/m 18,8 km/h (3 Bft) 95,74 %
29.06.2016 07:58 14,2 C 13,9 C 13,3 C 92 % 0 lf 1011,1 hPa 0,0 l/m 0 min 0 min 90 W/m 16,7 km/h (3 Bft) 93,48 %
29.06.2016 08:00 14,2 C 13,9 C 13,3 C 92 % 0 lf 1011,0 hPa 0,0 l/m 0 min 0 min 93 W/m 18,8 km/h (3 Bft) 93,62 %
29.06.2016 08:02 14,2 C 13,9 C 13,3 C 92 % 0 lf 1011,2 hPa 0,0 l/m 0 min 0 min 107 W/m 27,2 km/h (4 Bft) 93,62 %
29.06.2016 08:04 14,2 C 13,9 C 13,3 C 92 % 0 lf 1011,1 hPa 0,0 l/m 0 min 0 min 113 W/m 20,9 km/h (4 Bft) 93,62 %
29.06.2016 08:06 14,2 C 13,9 C 13,3 C 92 % 0 lf 1011,0 hPa 0,0 l/m 0 min 0 min 118 W/m 23,0 km/h (4 Bft) 92,68 %
29.06.2016 08:08 14,2 C 14,4 C 13,3 C 92 % 0 lf 1011,1 hPa 0,0 l/m 0 min 0 min 136 W/m 23,0 km/h (4 Bft) 93,62 %
29.06.2016 08:10 14,2 C 14,4 C 13,3 C 92 % 0 lf 1011,1 hPa 0,0 l/m 0 min 0 min 162 W/m 18,8 km/h (3 Bft) 97,87 %
29.06.2016 08:12 14,2 C 14,4 C 13,3 C 92 % 0 lf 1011,2 hPa 0,0 l/m 2 min 0 min 196 W/m 25,1 km/h (4 Bft) 95,65 %
29.06.2016 08:14 14,2 C 14,4 C 13,3 C 92 % 0 lf 1011,2 hPa 0,0 l/m 2 min 0 min 202 W/m 18,8 km/h (3 Bft) 93,62 %
29.06.2016 08:16 14,2 C 13,9 C 13,3 C 92 % 0 lf 1011,1 hPa 0,0 l/m 2 min 0 min 444 W/m 33,5 km/h (5 Bft) 97,87 %
29.06.2016 08:18 14,2 C 14,4 C 13,3 C 92 % 0 lf 1011,1 hPa 0,0 l/m 2 min 0 min 467 W/m 25,1 km/h (4 Bft) 95,74 %
29.06.2016 08:20 14,2 C 15,0 C 13,9 C 91 % 0 lf 1011,2 hPa 0,0 l/m 2 min 0 min 289 W/m 18,8 km/h (3 Bft) 95,74 %
29.06.2016 08:22 14,3 C 15,0 C 13,9 C 91 % 0 lf 1011,3 hPa 0,0 l/m 2 min 0 min 550 W/m 16,7 km/h (3 Bft) 93,62 %
29.06.2016 08:24 14,4 C 15,6 C 14,4 C 91 % 0 lf 1011,3 hPa 0,0 l/m 2 min 0 min 565 W/m 23,0 km/h (4 Bft) 100,00 %
29.06.2016 08:26 14,4 C 14,4 C 14,4 C 91 % 0 lf 1011,3 hPa 0,0 l/m 2 min 0 min 417 W/m 31,4 km/h (5 Bft) 100,00 %
29.06.2016 08:28 14,5 C 15,0 C 14,4 C 91 % 0 lf 1011,4 hPa 0,0 l/m 0 min 0 min 189 W/m 20,9 km/h (4 Bft) 95,74 %
29.06.2016 08:30 14,6 C 14,4 C 14,4 C 90 % 0 lf 1011,4 hPa 0,0 l/m 0 min 0 min 170 W/m 27,2 km/h (4 Bft) 95,74 %
29.06.2016 08:32 14,6 C 14,4 C 13,9 C 90 % 0 lf 1011,4 hPa 0,0 l/m 0 min 0 min 148 W/m 27,2 km/h (4 Bft) 93,75 %
29.06.2016 08:34 14,6 C 14,4 C 13,9 C 90 % 0 lf 1011,4 hPa 0,0 l/m 0 min 0 min 152 W/m 27,2 km/h (4 Bft) 95,74 %
29.06.2016 08:36 14,6 C 14,4 C 13,9 C 89 % 0 lf 1011,4 hPa 0,0 l/m 0 min 0 min 156 W/m 29,3 km/h (5 Bft) 96,08 %
29.06.2016 08:38 14,6 C 15,0 C 13,9 C 89 % 0 lf 1011,4 hPa 0,0 l/m 0 min 0 min 162 W/m 20,9 km/h (4 Bft) 93,62 %
29.06.2016 08:40 14,7 C 15,6 C 13,9 C 88 % 0 lf 1011,4 hPa 0,0 l/m 0 min 0 min 152 W/m 23,0 km/h (4 Bft) 97,87 %
29.06.2016 08:42 14,7 C 15,6 C 14,4 C 88 % 0 lf 1011,5 hPa 0,0 l/m 0 min 0 min 148 W/m 16,7 km/h (3 Bft) 93,62 %
29.06.2016 08:44 14,7 C 15,6 C 14,4 C 88 % 0 lf 1011,5 hPa 0,0 l/m 0 min 0 min 141 W/m 23,0 km/h (4 Bft) 95,65 %
29.06.2016 08:46 14,7 C 15,6 C 14,4 C 88 % 0 lf 1011,6 hPa 0,0 l/m 0 min 0 min 149 W/m 25,1 km/h (4 Bft) 97,87 %
29.06.2016 08:48 14,7 C 15,6 C 13,9 C 88 % 0 lf 1011,5 hPa 0,0 l/m 0 min 0 min 147 W/m 18,8 km/h (3 Bft) 95,74 %
29.06.2016 08:50 14,7 C 15,6 C 13,9 C 88 % 0 lf 1011,6 hPa 0,0 l/m 0 min 0 min 145 W/m 25,1 km/h (4 Bft) 93,62 %
29.06.2016 08:52 14,7 C 15,6 C 13,9 C 87 % 0 lf 1011,5 hPa 0,0 l/m 0 min 0 min 141 W/m 27,2 km/h (4 Bft) 95,74 %
29.06.2016 08:54 14,7 C 15,6 C 13,9 C 87 % 0 lf 1011,6 hPa 0,0 l/m 0 min 0 min 137 W/m 31,4 km/h (5 Bft) 97,87 %
29.06.2016 08:56 14,7 C 15,6 C 13,9 C 87 % 0 lf 1011,5 hPa 0,0 l/m 0 min 0 min 131 W/m 35,6 km/h (5 Bft) 95,65 %
29.06.2016 08:58 14,7 C 15,6 C 13,9 C 87 % 0 lf 1011,5 hPa 0,0 l/m 0 min 0 min 126 W/m 27,2 km/h (4 Bft) 95,74 %
29.06.2016 09:00 14,7 C 15,6 C 13,9 C 86 % 0 lf 1011,6 hPa 0,0 l/m 0 min 0 min 114 W/m 35,6 km/h (5 Bft) 89,36 %
29.06.2016 09:02 14,7 C 15,6 C 13,9 C 86 % 0 lf 1011,6 hPa 0,0 l/m 0 min 0 min 119 W/m 27,2 km/h (4 Bft) 95,74 %
29.06.2016 09:04 14,7 C 15,6 C 13,9 C 86 % 0 lf 1011,7 hPa 0,0 l/m 0 min 0 min 117 W/m 29,3 km/h (5 Bft) 95,74 %
29.06.2016 09:06 14,7 C 15,6 C 13,9 C 86 % 0 lf 1011,7 hPa 0,0 l/m 0 min 0 min 106 W/m 25,1 km/h (4 Bft) 93,62 %
29.06.2016 09:08 14,7 C 15,6 C 13,9 C 86 % 0 lf 1011,8 hPa 0,0 l/m 0 min 0 min 139 W/m 20,9 km/h (4 Bft) 95,65 %
29.06.2016 09:10 14,7 C 15,6 C 13,9 C 86 % 0 lf 1011,6 hPa 0,0 l/m 0 min 0 min 133 W/m 23,0 km/h (4 Bft) 97,22 %
29.06.2016 09:12 14,7 C 15,6 C 13,9 C 86 % 0 lf 1011,8 hPa 0,0 l/m 0 min 0 min 117 W/m 35,6 km/h (5 Bft) 94,23 %
29.06.2016 09:14 14,7 C 15,6 C 14,4 C 86 % 0 lf 1011,8 hPa 0,0 l/m 0 min 0 min 127 W/m 18,8 km/h (3 Bft) 91,49 %
29.06.2016 09:16 14,7 C 15,6 C 14,4 C 86 % 0 lf 1011,8 hPa 0,0 l/m 0 min 0 min 115 W/m 27,2 km/h (4 Bft) 95,74 %
29.06.2016 09:18 14,7 C 15,6 C 14,4 C 86 % 0 lf 1011,8 hPa 0,0 l/m 0 min 0 min 115 W/m 16,7 km/h (3 Bft) 97,87 %
29.06.2016 09:20 14,7 C 15,6 C 14,4 C 86 % 0 lf 1011,8 hPa 0,0 l/m 0 min 0 min 122 W/m 23,0 km/h (4 Bft) 97,87 %
29.06.2016 09:22 14,7 C 15,6 C 14,4 C 86 % 0 lf 1011,8 hPa 0,0 l/m 0 min 0 min 133 W/m 29,3 km/h (5 Bft) 97,83 %
29.06.2016 09:24 14,7 C 15,6 C 14,4 C 85 % 0 lf 1011,8 hPa 0,0 l/m 0 min 0 min 146 W/m 35,6 km/h (5 Bft) 97,87 %
29.06.2016 09:26 14,7 C 15,6 C 14,4 C 85 % 0 lf 1011,8 hPa 0,0 l/m 0 min 0 min 169 W/m 37,7 km/h (5 Bft) 97,87 %
29.06.2016 09:28 14,7 C 15,6 C 14,4 C 85 % 0 lf 1011,8 hPa 0,0 l/m 0 min 0 min 178 W/m 14,6 km/h (3 Bft) 100,00 %
29.06.2016 09:30 14,7 C 16,1 C 15,0 C 85 % 0 lf 1011,8 hPa 0,0 l/m 0 min 0 min 215 W/m 18,8 km/h (3 Bft) 100,00 %
29.06.2016 09:32 14,7 C 16,1 C 15,6 C 85 % 0 lf 1011,8 hPa 0,0 l/m 0 min 0 min 249 W/m 20,9 km/h (4 Bft) 100,00 %
29.06.2016 09:34 14,8 C 16,7 C 15,6 C 85 % 0 lf 1011,8 hPa 0,0 l/m 0 min 0 min 263 W/m 23,0 km/h (4 Bft) 97,83 %
29.06.2016 09:36 14,8 C 16,7 C 15,6 C 85 % 0 lf 1011,8 hPa 0,0 l/m 0 min 0 min 268 W/m 27,2 km/h (4 Bft) 98,08 %
29.06.2016 09:38 14,8 C 17,2 C 16,1 C 86 % 0 lf 1011,8 hPa 0,0 l/m 2 min 0 min 290 W/m 16,7 km/h (3 Bft) 100,00 %
29.06.2016 09:40 14,9 C 18,3 C 16,1 C 86 % 0 lf 1011,8 hPa 0,0 l/m 2 min 0 min 365 W/m 25,1 km/h (4 Bft) 97,87 %
29.06.2016 09:42 15,0 C 17,8 C 16,7 C 85 % 0 lf 1011,8 hPa 0,0 l/m 2 min 0 min 378 W/m 29,3 km/h (5 Bft) 97,83 %
29.06.2016 09:44 15,1 C 18,3 C 16,7 C 85 % 0 lf 1011,8 hPa 0,0 l/m 2 min 0 min 399 W/m 29,3 km/h (5 Bft) 95,74 %
29.06.2016 09:46 15,2 C 18,3 C 16,7 C 85 % 0 lf 1011,9 hPa 0,0 l/m 2 min 0 min 365 W/m 31,4 km/h (5 Bft) 97,87 %
29.06.2016 09:48 15,2 C 17,8 C 16,7 C 84 % 0 lf 1011,9 hPa 0,0 l/m 2 min 0 min 354 W/m 35,6 km/h (5 Bft) 97,87 %
29.06.2016 09:50 15,3 C 17,8 C 16,7 C 84 % 0 lf 1011,8 hPa 0,0 l/m 2 min 0 min 359 W/m 27,2 km/h (4 Bft) 95,74 %
29.06.2016 09:52 15,4 C 17,8 C 16,7 C 84 % 0 lf 1011,8 hPa 0,0 l/m 2 min 0 min 393 W/m 31,4 km/h (5 Bft) 97,87 %
29.06.2016 09:54 15,4 C 18,3 C 17,2 C 84 % 0 lf 1011,9 hPa 0,0 l/m 2 min 0 min 415 W/m 23,0 km/h (4 Bft) 95,65 %
29.06.2016 09:56 15,5 C 18,3 C 17,2 C 84 % 0 lf 1011,8 hPa 0,0 l/m 2 min 0 min 402 W/m 33,5 km/h (5 Bft) 97,87 %
29.06.2016 09:58 15,6 C 18,3 C 17,2 C 84 % 0 lf 1012,0 hPa 0,0 l/m 2 min 0 min 444 W/m 37,7 km/h (5 Bft) 100,00 %
29.06.2016 10:00 15,7 C 18,3 C 17,2 C 83 % 0 lf 1011,8 hPa 0,0 l/m 2 min 0 min 417 W/m 35,6 km/h (5 Bft) 100,00 %
29.06.2016 10:02 15,7 C 18,3 C 17,2 C 83 % 0 lf 1011,8 hPa 0,0 l/m 2 min 0 min 390 W/m 35,6 km/h (5 Bft) 97,87 %
29.06.2016 10:04 15,8 C 18,3 C 17,2 C 83 % 0 lf 1011,8 hPa 0,0 l/m 2 min 0 min 356 W/m 33,5 km/h (5 Bft) 100,00 %
29.06.2016 10:06 15,8 C 18,3 C 17,2 C 83 % 0 lf 1011,9 hPa 0,0 l/m 2 min 0 min 355 W/m 29,3 km/h (5 Bft) 100,00 %
29.06.2016 10:08 15,9 C 18,9 C 17,8 C 83 % 0 lf 1011,9 hPa 0,0 l/m 2 min 0 min 398 W/m 20,9 km/h (4 Bft) 97,87 %
29.06.2016 10:10 15,9 C 18,9 C 17,8 C 83 % 0 lf 1011,9 hPa 0,0 l/m 2 min 0 min 382 W/m 25,1 km/h (4 Bft) 97,83 %
29.06.2016 10:12 15,9 C 18,9 C 17,8 C 83 % 0 lf 1012,0 hPa 0,0 l/m 2 min 0 min 340 W/m 35,6 km/h (5 Bft) 95,74 %
29.06.2016 10:14 16,0 C 18,3 C 17,2 C 82 % 0 lf 1012,0 hPa 0,0 l/m 2 min 0 min 363 W/m 37,7 km/h (5 Bft) 97,87 %
29.06.2016 10:16 16,0 C 18,3 C 17,2 C 82 % 0 lf 1011,9 hPa 0,0 l/m 2 min 0 min 388 W/m 29,3 km/h (5 Bft) 100,00 %
29.06.2016 10:18 16,1 C 18,9 C 17,8 C 82 % 0 lf 1011,9 hPa 0,0 l/m 2 min 0 min 387 W/m 31,4 km/h (5 Bft) 100,00 %
29.06.2016 10:20 16,1 C 18,3 C 17,8 C 82 % 0 lf 1012,0 hPa 0,0 l/m 2 min 0 min 386 W/m 31,4 km/h (5 Bft) 100,00 %
29.06.2016 10:22 16,1 C 18,3 C 17,8 C 82 % 0 lf 1011,8 hPa 0,0 l/m 2 min 0 min 345 W/m 39,7 km/h (6 Bft) 100,00 %
29.06.2016 10:24 16,1 C 17,8 C 17,2 C 81 % 0 lf 1012,1 hPa 0,0 l/m 0 min 0 min 320 W/m 46,0 km/h (6 Bft) 97,87 %
29.06.2016 10:26 16,1 C 17,8 C 17,2 C 81 % 0 lf 1012,2 hPa 0,0 l/m 0 min 0 min 326 W/m 31,4 km/h (5 Bft) 100,00 %
29.06.2016 10:28 16,2 C 18,3 C 17,2 C 81 % 0 lf 1012,0 hPa 0,0 l/m 0 min 0 min 306 W/m 29,3 km/h (5 Bft) 100,00 %
29.06.2016 10:30 16,2 C 17,8 C 17,2 C 81 % 0 lf 1012,1 hPa 0,0 l/m 0 min 0 min 283 W/m 31,4 km/h (5 Bft) 93,62 %
29.06.2016 10:32 16,2 C 17,8 C 16,7 C 81 % 0 lf 1012,0 hPa 0,0 l/m 0 min 0 min 273 W/m 29,3 km/h (5 Bft) 97,87 %
29.06.2016 10:34 16,2 C 17,8 C 16,7 C 81 % 0 lf 1012,2 hPa 0,0 l/m 0 min 0 min 269 W/m 33,5 km/h (5 Bft) 97,83 %
29.06.2016 10:36 16,2 C 17,2 C 16,7 C 81 % 0 lf 1012,1 hPa 0,0 l/m 0 min 0 min 259 W/m 31,4 km/h (5 Bft) 92,00 %
29.06.2016 10:38 16,1 C 17,8 C 16,7 C 81 % 0 lf 1012,2 hPa 0,0 l/m 0 min 0 min 281 W/m 33,5 km/h (5 Bft) 95,74 %
29.06.2016 10:40 16,1 C 17,8 C 16,7 C 81 % 0 lf 1012,1 hPa 0,0 l/m 0 min 0 min 273 W/m 31,4 km/h (5 Bft) 97,87 %
29.06.2016 10:42 16,1 C 17,2 C 16,7 C 81 % 0 lf 1012,1 hPa 0,0 l/m 0 min 0 min 251 W/m 37,7 km/h (5 Bft) 95,74 %
29.06.2016 10:44 16,1 C 17,2 C 16,1 C 81 % 0 lf 1012,0 hPa 0,0 l/m 0 min 0 min 181 W/m 33,5 km/h (5 Bft) 97,83 %
29.06.2016 10:46 16,1 C 20,0 C 18,3 C 81 % 0 lf 1012,0 hPa 0,0 l/m 2 min 0 min 402 W/m 27,2 km/h (4 Bft) 93,62 %
29.06.2016 10:48 16,2 C 21,7 C 20,0 C 82 % 0 lf 1012,1 hPa 0,0 l/m 2 min 0 min 825 W/m 25,1 km/h (4 Bft) 93,62 %
29.06.2016 10:50 16,3 C 22,8 C 21,1 C 82 % 0 lf 1012,0 hPa 0,0 l/m 2 min 0 min 808 W/m 27,2 km/h (4 Bft) 93,62 %
29.06.2016 10:52 16,4 C 23,9 C 21,1 C 82 % 0 lf 1012,1 hPa 0,0 l/m 2 min 0 min 812 W/m 25,1 km/h (4 Bft) 95,74 %
29.06.2016 10:54 16,6 C 23,9 C 21,1 C 82 % 0 lf 1012,1 hPa 0,0 l/m 2 min 0 min 810 W/m 31,4 km/h (5 Bft) 91,49 %
29.06.2016 10:56 16,7 C 23,9 C 21,1 C 81 % 0 lf 1012,1 hPa 0,0 l/m 2 min 0 min 794 W/m 37,7 km/h (5 Bft) 91,30 %
29.06.2016 10:58 16,8 C 23,9 C 21,1 C 79 % 0 lf 1012,3 hPa 0,0 l/m 2 min 0 min 868 W/m 29,3 km/h (5 Bft) 93,62 %
29.06.2016 11:00 17,0 C 23,9 C 21,7 C 80 % 0 lf 1012,1 hPa 0,0 l/m 2 min 0 min 908 W/m 18,8 km/h (3 Bft) 91,49 %
29.06.2016 11:02 17,2 C 25,0 C 22,8 C 81 % 0 lf 1012,1 hPa 0,0 l/m 2 min 0 min 698 W/m 16,7 km/h (3 Bft) 93,62 %
29.06.2016 11:04 17,3 C 23,9 C 22,2 C 80 % 0 lf 1012,2 hPa 0,0 l/m 2 min 0 min 671 W/m 35,6 km/h (5 Bft) 89,36 %
29.06.2016 11:06 17,4 C 23,9 C 22,2 C 79 % 0 lf 1012,1 hPa 0,0 l/m 2 min 0 min 671 W/m 31,4 km/h (5 Bft) 91,84 %
29.06.2016 11:08 17,5 C 23,9 C 22,2 C 79 % 0 lf 1012,1 hPa 0,0 l/m 2 min 0 min 643 W/m 37,7 km/h (5 Bft) 91,49 %
29.06.2016 11:10 17,6 C 25,6 C 22,8 C 79 % 0 lf 1012,1 hPa 0,0 l/m 2 min 0 min 932 W/m 23,0 km/h (4 Bft) 91,49 %
29.06.2016 11:12 17,8 C 25,6 C 23,3 C 79 % 0 lf 1012,1 hPa 0,0 l/m 2 min 0 min 995 W/m 20,9 km/h (4 Bft) 93,62 %
29.06.2016 11:14 17,9 C 26,7 C 23,3 C 79 % 0 lf 1012,2 hPa 0,0 l/m 2 min 0 min 995 W/m 23,0 km/h (4 Bft) 93,62 %
29.06.2016 11:16 17,9 C 23,9 C 21,1 C 77 % 0 lf 1012,3 hPa 0,0 l/m 2 min 0 min 995 W/m 39,7 km/h (6 Bft) 93,48 %
29.06.2016 11:18 17,9 C 23,3 C 21,7 C 76 % 0 lf 1012,3 hPa 0,0 l/m 2 min 0 min 596 W/m 27,2 km/h (4 Bft) 91,49 %
29.06.2016 11:20 18,0 C 22,8 C 21,1 C 76 % 0 lf 1012,3 hPa 0,0 l/m 2 min 0 min 587 W/m 31,4 km/h (5 Bft) 89,36 %
29.06.2016 11:22 18,0 C 23,3 C 21,7 C 77 % 0 lf 1012,2 hPa 0,0 l/m 2 min 0 min 587 W/m 31,4 km/h (5 Bft) 91,49 %
29.06.2016 11:24 18,0 C 22,8 C 21,1 C 77 % 0 lf 1012,3 hPa 0,0 l/m 2 min 0 min 587 W/m 33,5 km/h (5 Bft) 93,62 %
29.06.2016 11:26 18,0 C 23,3 C 21,7 C 76 % 0 lf 1012,3 hPa 0,0 l/m 2 min 0 min 633 W/m 27,2 km/h (4 Bft) 95,74 %
29.06.2016 11:28 18,1 C 24,4 C 22,2 C 77 % 0 lf 1012,2 hPa 0,0 l/m 2 min 0 min 782 W/m 31,4 km/h (5 Bft) 91,30 %
29.06.2016 11:30 18,1 C 23,3 C 21,7 C 77 % 0 lf 1012,2 hPa 0,0 l/m 2 min 0 min 716 W/m 27,2 km/h (4 Bft) 95,74 %
29.06.2016 11:32 18,1 C 23,9 C 21,1 C 77 % 0 lf 1012,3 hPa 0,0 l/m 2 min 0 min 714 W/m 20,9 km/h (4 Bft) 93,62 %
29.06.2016 11:34 18,2 C 24,4 C 21,1 C 76 % 0 lf 1012,2 hPa 0,0 l/m 2 min 0 min 714 W/m 37,7 km/h (5 Bft) 93,62 %
29.06.2016 11:36 18,2 C 25,0 C 20,6 C 76 % 0 lf 1012,2 hPa 0,0 l/m 2 min 0 min 1026 W/m 29,3 km/h (5 Bft) 95,74 %
29.06.2016 11:38 18,3 C 25,0 C 21,1 C 76 % 0 lf 1012,3 hPa 0,0 l/m 2 min 0 min 849 W/m 29,3 km/h (5 Bft) 93,62 %
29.06.2016 11:40 18,4 C 25,0 C 21,1 C 76 % 0 lf 1012,4 hPa 0,0 l/m 2 min 0 min 849 W/m 35,6 km/h (5 Bft) 93,48 %
29.06.2016 11:42 18,4 C 24,4 C 21,7 C 75 % 0 lf 1012,2 hPa 0,0 l/m 2 min 0 min 584 W/m 33,5 km/h (5 Bft) 97,87 %
29.06.2016 11:44 18,5 C 24,4 C 21,7 C 75 % 0 lf 1012,3 hPa 0,0 l/m 2 min 0 min 584 W/m 29,3 km/h (5 Bft) 97,87 %
29.06.2016 11:46 18,5 C 25,0 C 22,8 C 75 % 0 lf 1012,3 hPa 0,0 l/m 2 min 0 min 999 W/m 33,5 km/h (5 Bft) 93,62 %
29.06.2016 11:48 18,6 C 24,4 C 22,8 C 75 % 0 lf 1012,4 hPa 0,0 l/m 2 min 0 min 1058 W/m 41,8 km/h (6 Bft) 97,87 %
29.06.2016 11:50 18,6 C 25,0 C 22,8 C 74 % 0 lf 1012,3 hPa 0,0 l/m 2 min 0 min 1058 W/m 33,5 km/h (5 Bft) 97,87 %
29.06.2016 11:52 18,7 C 24,4 C 22,2 C 74 % 0 lf 1012,4 hPa 0,0 l/m 2 min 0 min 1058 W/m 43,9 km/h (6 Bft) 95,65 %
29.06.2016 11:54 18,6 C 22,8 C 21,7 C 74 % 0 lf 1012,4 hPa 0,0 l/m 2 min 0 min 950 W/m 37,7 km/h (5 Bft) 97,87 %
29.06.2016 11:56 18,6 C 22,8 C 21,1 C 73 % 0 lf 1012,4 hPa 0,0 l/m 0 min 0 min 388 W/m 27,2 km/h (4 Bft) 95,74 %
29.06.2016 11:58 18,7 C 24,4 C 22,8 C 74 % 0 lf 1012,5 hPa 0,0 l/m 0 min 0 min 380 W/m 29,3 km/h (5 Bft) 97,87 %
29.06.2016 12:00 18,7 C 25,0 C 22,8 C 75 % 0 lf 1012,5 hPa 0,0 l/m 0 min 0 min 380 W/m 37,7 km/h (5 Bft) 97,87 %
29.06.2016 12:02 18,8 C 25,6 C 23,3 C 74 % 0 lf 1012,4 hPa 0,0 l/m 2 min 0 min 848 W/m 39,7 km/h (6 Bft) 97,14 %
29.06.2016 12:04 18,8 C 23,3 C 21,7 C 73 % 0 lf 1012,5 hPa 0,0 l/m 2 min 0 min 724 W/m 33,5 km/h (5 Bft) 96,30 %
29.06.2016 12:06 18,9 C 25,0 C 22,2 C 73 % 0 lf 1012,5 hPa 0,0 l/m 2 min 0 min 448 W/m 27,2 km/h (4 Bft) 96,08 %
29.06.2016 12:08 18,9 C 25,0 C 23,3 C 73 % 0 lf 1012,5 hPa 0,0 l/m 2 min 0 min 954 W/m 33,5 km/h (5 Bft) 97,87 %
29.06.2016 12:10 19,0 C 23,9 C 22,8 C 72 % 0 lf 1012,5 hPa 0,0 l/m 2 min 0 min 1083 W/m 35,6 km/h (5 Bft) 93,62 %
29.06.2016 12:12 19,0 C 23,9 C 22,8 C 72 % 0 lf 1012,5 hPa 0,0 l/m 2 min 0 min 643 W/m 37,7 km/h (5 Bft) 95,74 %
29.06.2016 12:14 19,1 C 23,9 C 22,8 C 72 % 0 lf 1012,8 hPa 0,0 l/m 2 min 0 min 744 W/m 29,3 km/h (5 Bft) 97,87 %
29.06.2016 12:16 19,1 C 25,6 C 23,9 C 73 % 0 lf 1012,4 hPa 0,0 l/m 2 min 0 min 738 W/m 33,5 km/h (5 Bft) 97,83 %
29.06.2016 12:18 19,2 C 26,1 C 24,4 C 73 % 0 lf 1012,5 hPa 0,0 l/m 2 min 0 min 914 W/m 25,1 km/h (4 Bft) 97,87 %
29.06.2016 12:20 19,4 C 26,7 C 24,4 C 74 % 0 lf 1012,4 hPa 0,0 l/m 2 min 0 min 887 W/m 16,7 km/h (3 Bft) 100,00 %
29.06.2016 12:22 19,6 C 27,2 C 25,0 C 74 % 0 lf 1012,6 hPa 0,0 l/m 2 min 0 min 601 W/m 31,4 km/h (5 Bft) 100,00 %
29.06.2016 12:24 19,6 C 25,6 C 23,9 C 72 % 0 lf 1012,5 hPa 0,0 l/m 0 min 0 min 354 W/m 20,9 km/h (4 Bft) 97,87 %
29.06.2016 12:26 19,7 C 24,4 C 22,8 C 72 % 0 lf 1012,5 hPa 0,0 l/m 0 min 0 min 357 W/m 27,2 km/h (4 Bft) 97,83 %
29.06.2016 12:28 19,7 C 24,4 C 22,8 C 71 % 0 lf 1012,5 hPa 0,0 l/m 2 min 0 min 705 W/m 33,5 km/h (5 Bft) 97,87 %
29.06.2016 12:30 19,6 C 24,4 C 22,8 C 70 % 0 lf 1012,6 hPa 0,0 l/m 2 min 0 min 1027 W/m 27,2 km/h (4 Bft) 100,00 %
29.06.2016 12:32 19,7 C 24,4 C 22,8 C 71 % 0 lf 1012,6 hPa 0,0 l/m 2 min 0 min 873 W/m 25,1 km/h (4 Bft) 100,00 %
29.06.2016 12:34 19,6 C 22,8 C 21,7 C 71 % 0 lf 1012,7 hPa 0,0 l/m 0 min 0 min 363 W/m 31,4 km/h (5 Bft) 100,00 %
29.06.2016 12:36 19,6 C 22,8 C 21,1 C 71 % 0 lf 1012,6 hPa 0,0 l/m 0 min 0 min 358 W/m 41,8 km/h (6 Bft) 100,00 %
29.06.2016 12:38 19,6 C 24,4 C 21,7 C 72 % 0 lf 1012,6 hPa 0,0 l/m 0 min 0 min 360 W/m 29,3 km/h (5 Bft) 100,00 %
29.06.2016 12:40 19,6 C 24,4 C 21,7 C 72 % 0 lf 1012,6 hPa 0,0 l/m 2 min 0 min 931 W/m 37,7 km/h (5 Bft) 97,87 %
29.06.2016 12:42 19,6 C 26,1 C 22,2 C 72 % 0 lf 1012,6 hPa 0,0 l/m 2 min 0 min 913 W/m 25,1 km/h (4 Bft) 97,83 %
29.06.2016 12:44 19,7 C 26,7 C 22,2 C 72 % 0 lf 1012,6 hPa 0,0 l/m 2 min 0 min 922 W/m 23,0 km/h (4 Bft) 97,87 %
29.06.2016 12:46 19,8 C 27,2 C 22,2 C 71 % 0 lf 1012,6 hPa 0,0 l/m 2 min 0 min 886 W/m 23,0 km/h (4 Bft) 97,87 %
29.06.2016 12:48 19,9 C 26,7 C 22,2 C 71 % 0 lf 1012,5 hPa 0,0 l/m 2 min 0 min 725 W/m 27,2 km/h (4 Bft) 100,00 %
29.06.2016 12:50 19,9 C 26,1 C 21,7 C 69 % 0 lf 1012,5 hPa 0,0 l/m 2 min 0 min 645 W/m 39,7 km/h (6 Bft) 100,00 %
29.06.2016 12:52 19,9 C 24,4 C 21,7 C 69 % 0 lf 1012,6 hPa 0,0 l/m 2 min 0 min 922 W/m 27,2 km/h (4 Bft) 100,00 %
29.06.2016 12:54 19,9 C 22,2 C 20,6 C 68 % 0 lf 1012,6 hPa 0,0 l/m 0 min 0 min 319 W/m 31,4 km/h (5 Bft) 97,83 %
29.06.2016 12:56 19,8 C 23,3 C 20,6 C 69 % 0 lf 1012,5 hPa 0,0 l/m 0 min 0 min 307 W/m 25,1 km/h (4 Bft) 100,00 %
29.06.2016 12:58 19,8 C 25,0 C 21,1 C 70 % 0 lf 1012,5 hPa 0,0 l/m 2 min 0 min 1030 W/m 29,3 km/h (5 Bft) 95,74 %
29.06.2016 13:00 19,8 C 25,0 C 22,2 C 70 % 0 lf 1012,6 hPa 0,0 l/m 2 min 0 min 1036 W/m 31,4 km/h (5 Bft) 100,00 %
29.06.2016 13:02 19,9 C 26,1 C 22,8 C 70 % 0 lf 1012,6 hPa 0,0 l/m 2 min 0 min 1022 W/m 31,4 km/h (5 Bft) 100,00 %
29.06.2016 13:04 20,0 C 25,6 C 23,3 C 70 % 0 lf 1012,5 hPa 0,0 l/m 2 min 0 min 989 W/m 31,4 km/h (5 Bft) 95,74 %
29.06.2016 13:06 20,1 C 27,2 C 24,4 C 70 % 0 lf 1012,4 hPa 0,0 l/m 2 min 0 min 959 W/m 18,8 km/h (3 Bft) 98,04 %
29.06.2016 13:08 20,1 C 26,7 C 24,4 C 68 % 0 lf 1012,4 hPa 0,0 l/m 2 min 0 min 920 W/m 27,2 km/h (4 Bft) 95,74 %
29.06.2016 13:10 20,2 C 27,8 C 25,0 C 68 % 0 lf 1012,3 hPa 0,0 l/m 2 min 0 min 930 W/m 23,0 km/h (4 Bft) 95,74 %
29.06.2016 13:12 20,3 C 27,2 C 25,0 C 68 % 0 lf 1012,4 hPa 0,0 l/m 2 min 0 min 929 W/m 33,5 km/h (5 Bft) 91,49 %
29.06.2016 13:14 20,3 C 26,1 C 24,4 C 67 % 0 lf 1012,4 hPa 0,0 l/m 2 min 0 min 929 W/m 39,7 km/h (6 Bft) 91,30 %
29.06.2016 13:16 20,4 C 26,7 C 24,4 C 67 % 0 lf 1012,4 hPa 0,0 l/m 2 min 0 min 931 W/m 25,1 km/h (4 Bft) 95,74 %
29.06.2016 13:18 20,4 C 27,8 C 23,9 C 69 % 0 lf 1012,3 hPa 0,0 l/m 2 min 0 min 921 W/m 25,1 km/h (4 Bft) 93,62 %
29.06.2016 13:20 20,6 C 27,2 C 23,3 C 67 % 0 lf 1012,4 hPa 0,0 l/m 2 min 0 min 946 W/m 31,4 km/h (5 Bft) 95,74 %
29.06.2016 13:22 20,6 C 26,1 C 22,8 C 66 % 0 lf 1012,4 hPa 0,0 l/m 2 min 0 min 921 W/m 33,5 km/h (5 Bft) 95,74 %
29.06.2016 13:24 20,6 C 26,7 C 22,8 C 67 % 0 lf 1012,3 hPa 0,0 l/m 2 min 0 min 1010 W/m 35,6 km/h (5 Bft) 95,74 %
29.06.2016 13:26 20,7 C 26,1 C 22,8 C 67 % 0 lf 1012,4 hPa 0,0 l/m 2 min 0 min 1013 W/m 31,4 km/h (5 Bft) 95,65 %
29.06.2016 13:28 20,7 C 26,7 C 22,8 C 67 % 0 lf 1012,4 hPa 0,0 l/m 2 min 0 min 1048 W/m 29,3 km/h (5 Bft) 95,74 %
29.06.2016 13:30 20,7 C 26,1 C 22,2 C 68 % 0 lf 1012,3 hPa 0,0 l/m 2 min 0 min 1065 W/m 25,1 km/h (4 Bft) 93,62 %
29.06.2016 13:32 20,7 C 26,7 C 22,2 C 66 % 0 lf 1012,3 hPa 0,0 l/m 2 min 0 min 1028 W/m 25,1 km/h (4 Bft) 95,74 %
29.06.2016 13:34 20,8 C 27,8 C 22,2 C 66 % 0 lf 1012,3 hPa 0,0 l/m 2 min 0 min 921 W/m 23,0 km/h (4 Bft) 95,74 %
29.06.2016 13:36 20,8 C 27,2 C 22,8 C 66 % 0 lf 1012,3 hPa 0,0 l/m 2 min 0 min 984 W/m 18,8 km/h (3 Bft) 92,68 %
29.06.2016 13:38 20,8 C 25,0 C 21,7 C 64 % 0 lf 1012,3 hPa 0,0 l/m 2 min 0 min 662 W/m 33,5 km/h (5 Bft) 91,49 %
29.06.2016 13:40 20,8 C 25,6 C 21,7 C 64 % 0 lf 1012,3 hPa 0,0 l/m 0 min 0 min 376 W/m 25,1 km/h (4 Bft) 93,48 %
29.06.2016 13:42 20,8 C 23,9 C 21,7 C 65 % 0 lf 1012,3 hPa 0,0 l/m 0 min 0 min 317 W/m 29,3 km/h (5 Bft) 93,62 %
29.06.2016 13:44 20,7 C 22,8 C 20,6 C 63 % 0 lf 1012,4 hPa 0,0 l/m 0 min 0 min 267 W/m 27,2 km/h (4 Bft) 97,87 %
29.06.2016 13:46 20,7 C 25,6 C 21,7 C 63 % 0 lf 1012,4 hPa 0,0 l/m 2 min 0 min 495 W/m 29,3 km/h (5 Bft) 97,87 %
29.06.2016 13:48 20,7 C 26,7 C 22,2 C 63 % 0 lf 1012,4 hPa 0,0 l/m 2 min 0 min 1134 W/m 25,1 km/h (4 Bft) 91,49 %
29.06.2016 13:50 20,8 C 27,8 C 22,8 C 64 % 0 lf 1012,4 hPa 0,0 l/m 2 min 0 min 1096 W/m 20,9 km/h (4 Bft) 97,87 %
29.06.2016 13:52 20,9 C 27,8 C 23,3 C 64 % 0 lf 1012,4 hPa 0,0 l/m 2 min 0 min 852 W/m 29,3 km/h (5 Bft) 97,83 %
29.06.2016 13:54 20,9 C 27,8 C 23,3 C 64 % 0 lf 1012,5 hPa 0,0 l/m 2 min 0 min 853 W/m 23,0 km/h (4 Bft) 97,87 %
29.06.2016 13:56 21,0 C 26,1 C 22,8 C 64 % 0 lf 1012,5 hPa 0,0 l/m 2 min 0 min 785 W/m 33,5 km/h (5 Bft) 97,87 %
29.06.2016 13:58 21,0 C 26,7 C 22,8 C 63 % 0 lf 1012,5 hPa 0,0 l/m 2 min 0 min 784 W/m 33,5 km/h (5 Bft) 95,74 %
29.06.2016 14:00 21,1 C 27,8 C 23,3 C 65 % 0 lf 1012,4 hPa 0,0 l/m 2 min 0 min 1058 W/m 27,2 km/h (4 Bft) 97,87 %
29.06.2016 14:02 21,2 C 28,3 C 23,3 C 64 % 0 lf 1012,4 hPa 0,0 l/m 2 min 0 min 1081 W/m 25,1 km/h (4 Bft) 95,92 %
29.06.2016 14:04 21,3 C 26,7 C 22,8 C 65 % 0 lf 1012,4 hPa 0,0 l/m 2 min 0 min 1051 W/m 25,1 km/h (4 Bft) 95,65 %
29.06.2016 14:06 21,3 C 27,2 C 23,3 C 63 % 0 lf 1012,4 hPa 0,0 l/m 2 min 0 min 1056 W/m 25,1 km/h (4 Bft) 94,00 %
29.06.2016 14:08 21,4 C 27,8 C 25,0 C 64 % 0 lf 1012,3 hPa 0,0 l/m 2 min 0 min 1033 W/m 20,9 km/h (4 Bft) 97,87 %
29.06.2016 14:10 21,4 C 28,9 C 27,2 C 64 % 0 lf 1012,5 hPa 0,0 l/m 2 min 0 min 1027 W/m 29,3 km/h (5 Bft) 97,87 %
29.06.2016 14:12 21,6 C 27,8 C 28,3 C 61 % 0 lf 1012,4 hPa 0,0 l/m 2 min 0 min 1069 W/m 25,1 km/h (4 Bft) 95,74 %
29.06.2016 14:14 21,6 C 27,2 C 27,2 C 61 % 0 lf 1012,3 hPa 0,0 l/m 2 min 0 min 996 W/m 25,1 km/h (4 Bft) 97,83 %
29.06.2016 14:16 21,6 C 25,0 C 25,0 C 61 % 0 lf 1012,4 hPa 0,0 l/m 0 min 0 min 331 W/m 27,2 km/h (4 Bft) 97,87 %
29.06.2016 14:18 21,6 C 23,9 C 23,3 C 60 % 0 lf 1012,4 hPa 0,0 l/m 0 min 0 min 275 W/m 31,4 km/h (5 Bft) 93,62 %
29.06.2016 14:20 21,4 C 22,2 C 22,2 C 61 % 0 lf 1012,5 hPa 0,0 l/m 0 min 0 min 298 W/m 23,0 km/h (4 Bft) 97,87 %
29.06.2016 14:22 21,3 C 22,8 C 23,3 C 60 % 0 lf 1012,5 hPa 0,0 l/m 0 min 0 min 330 W/m 25,1 km/h (4 Bft) 95,74 %
29.06.2016 14:24 21,1 C 22,8 C 23,3 C 62 % 0 lf 1012,4 hPa 0,0 l/m 0 min 0 min 351 W/m 18,8 km/h (3 Bft) 97,87 %
29.06.2016 14:26 21,0 C 22,8 C 22,8 C 63 % 0 lf 1012,3 hPa 0,0 l/m 0 min 0 min 297 W/m 20,9 km/h (4 Bft) 95,65 %
29.06.2016 14:28 20,9 C 23,3 C 23,3 C 63 % 0 lf 1012,4 hPa 0,0 l/m 0 min 0 min 304 W/m 25,1 km/h (4 Bft) 93,62 %
29.06.2016 14:30 20,9 C 25,6 C 25,6 C 64 % 0 lf 1012,4 hPa 0,0 l/m 2 min 0 min 643 W/m 20,9 km/h (4 Bft) 97,87 %
29.06.2016 14:32 21,0 C 27,2 C 27,8 C 65 % 0 lf 1012,4 hPa 0,0 l/m 2 min 0 min 998 W/m 18,8 km/h (3 Bft) 97,92 %
29.06.2016 14:34 21,1 C 27,2 C 28,3 C 63 % 0 lf 1012,4 hPa 0,0 l/m 2 min 0 min 986 W/m 20,9 km/h (4 Bft) 95,74 %
29.06.2016 14:36 21,2 C 26,7 C 27,2 C 62 % 0 lf 1012,3 hPa 0,0 l/m 2 min 0 min 986 W/m 29,3 km/h (5 Bft) 97,83 %
29.06.2016 14:38 21,2 C 27,2 C 28,3 C 60 % 0 lf 1012,3 hPa 0,0 l/m 2 min 0 min 1003 W/m 25,1 km/h (4 Bft) 95,74 %
29.06.2016 14:40 21,3 C 27,8 C 28,9 C 60 % 0 lf 1012,3 hPa 0,0 l/m 2 min 0 min 1040 W/m 25,1 km/h (4 Bft) 100,00 %
29.06.2016 14:42 21,3 C 27,8 C 28,9 C 60 % 0 lf 1012,4 hPa 0,0 l/m 2 min 0 min 1026 W/m 29,3 km/h (5 Bft) 95,74 %
29.06.2016 14:44 21,5 C 28,3 C 29,4 C 62 % 0 lf 1012,4 hPa 0,0 l/m 2 min 0 min 983 W/m 33,5 km/h (5 Bft) 97,87 %
29.06.2016 14:46 21,6 C 27,2 C 27,8 C 60 % 0 lf 1012,3 hPa 0,0 l/m 2 min 0 min 981 W/m 25,1 km/h (4 Bft) 93,62 %
29.06.2016 14:48 21,6 C 26,1 C 26,7 C 60 % 0 lf 1012,4 hPa 0,0 l/m 0 min 0 min 356 W/m 23,0 km/h (4 Bft) 97,83 %
29.06.2016 14:50 21,6 C 26,7 C 27,8 C 61 % 0 lf 1012,4 hPa 0,0 l/m 2 min 0 min 723 W/m 25,1 km/h (4 Bft) 95,74 %
29.06.2016 14:52 21,6 C 27,2 C 28,9 C 62 % 0 lf 1012,3 hPa 0,0 l/m 2 min 0 min 1023 W/m 23,0 km/h (4 Bft) 95,74 %
29.06.2016 14:54 21,7 C 27,8 C 28,9 C 62 % 0 lf 1012,2 hPa 0,0 l/m 2 min 0 min 952 W/m 39,7 km/h (6 Bft) 97,87 %
29.06.2016 14:56 21,7 C 28,3 C 30,0 C 61 % 0 lf 1012,2 hPa 0,0 l/m 2 min 0 min 906 W/m 27,2 km/h (4 Bft) 97,87 %
29.06.2016 14:58 21,8 C 28,3 C 31,1 C 62 % 0 lf 1012,2 hPa 0,0 l/m 2 min 0 min 1049 W/m 23,0 km/h (4 Bft) 97,87 %
29.06.2016 15:00 21,9 C 28,9 C 31,1 C 63 % 0 lf 1012,3 hPa 0,0 l/m 2 min 0 min 1020 W/m 27,2 km/h (4 Bft) 97,83 %
29.06.2016 15:02 22,0 C 28,3 C 30,0 C 61 % 0 lf 1012,2 hPa 0,0 l/m 2 min 0 min 958 W/m 29,3 km/h (5 Bft) 97,87 %
29.06.2016 15:04 21,9 C 26,7 C 27,2 C 58 % 0 lf 1012,3 hPa 0,0 l/m 2 min 0 min 758 W/m 29,3 km/h (5 Bft) 95,74 %
29.06.2016 15:06 21,9 C 25,0 C 27,2 C 58 % 0 lf 1012,2 hPa 0,0 l/m 2 min 0 min 755 W/m 29,3 km/h (5 Bft) 95,12 %
29.06.2016 15:08 21,9 C 25,6 C 27,2 C 59 % 0 lf 1012,3 hPa 0,0 l/m 2 min 0 min 728 W/m 29,3 km/h (5 Bft) 93,62 %
29.06.2016 15:10 21,9 C 26,7 C 28,3 C 60 % 0 lf 1012,2 hPa 0,0 l/m 2 min 0 min 980 W/m 25,1 km/h (4 Bft) 97,87 %
29.06.2016 15:12 21,9 C 27,2 C 28,9 C 59 % 0 lf 1012,2 hPa 0,0 l/m 2 min 0 min 1046 W/m 25,1 km/h (4 Bft) 89,36 %
29.06.2016 15:14 21,9 C 26,1 C 26,7 C 59 % 0 lf 1012,2 hPa 0,0 l/m 2 min 0 min 871 W/m 31,4 km/h (5 Bft) 93,48 %
29.06.2016 15:16 21,8 C 26,1 C 28,3 C 59 % 0 lf 1012,3 hPa 0,0 l/m 2 min 0 min 595 W/m 27,2 km/h (4 Bft) 93,62 %
29.06.2016 15:18 21,8 C 27,2 C 28,9 C 60 % 0 lf 1012,2 hPa 0,0 l/m 2 min 0 min 1025 W/m 46,0 km/h (6 Bft) 100,00 %
29.06.2016 15:20 21,9 C 27,2 C 30,0 C 59 % 0 lf 1012,2 hPa 0,0 l/m 2 min 0 min 1009 W/m 37,7 km/h (5 Bft) 97,87 %
29.06.2016 15:22 21,9 C 28,3 C 31,1 C 60 % 0 lf 1012,1 hPa 0,0 l/m 2 min 0 min 999 W/m 23,0 km/h (4 Bft) 93,62 %
29.06.2016 15:24 22,0 C 27,2 C 31,1 C 59 % 0 lf 1012,2 hPa 0,0 l/m 2 min 0 min 988 W/m 27,2 km/h (4 Bft) 95,74 %
29.06.2016 15:26 22,0 C 27,2 C 30,6 C 58 % 0 lf 1012,3 hPa 0,0 l/m 2 min 0 min 996 W/m 33,5 km/h (5 Bft) 95,65 %
29.06.2016 15:28 22,1 C 27,2 C 30,6 C 59 % 0 lf 1012,2 hPa 0,0 l/m 2 min 0 min 1044 W/m 29,3 km/h (5 Bft) 93,62 %
29.06.2016 15:30 22,1 C 27,2 C 30,0 C 59 % 0 lf 1012,1 hPa 0,0 l/m 2 min 0 min 916 W/m 20,9 km/h (4 Bft) 95,74 %
29.06.2016 15:32 22,1 C 27,2 C 29,4 C 58 % 0 lf 1012,2 hPa 0,0 l/m 2 min 0 min 831 W/m 27,2 km/h (4 Bft) 93,75 %
29.06.2016 15:34 22,1 C 27,2 C 29,4 C 60 % 0 lf 1012,2 hPa 0,0 l/m 2 min 0 min 684 W/m 23,0 km/h (4 Bft) 93,62 %
29.06.2016 15:36 22,2 C 26,7 C 28,9 C 60 % 0 lf 1012,2 hPa 0,0 l/m 2 min 0 min 684 W/m 25,1 km/h (4 Bft) 96,08 %
29.06.2016 15:38 22,1 C 26,1 C 27,8 C 60 % 0 lf 1012,2 hPa 0,0 l/m 2 min 0 min 603 W/m 27,2 km/h (4 Bft) 97,87 %
29.06.2016 15:40 22,1 C 25,0 C 26,1 C 58 % 0 lf 1012,2 hPa 0,0 l/m 2 min 0 min 585 W/m 29,3 km/h (5 Bft) 95,74 %
29.06.2016 15:42 22,0 C 25,0 C 25,6 C 57 % 0 lf 1012,4 hPa 0,0 l/m 2 min 0 min 585 W/m 20,9 km/h (4 Bft) 95,74 %
29.06.2016 15:44 21,9 C 25,0 C 26,1 C 57 % 0 lf 1012,2 hPa 0,0 l/m 2 min 0 min 585 W/m 23,0 km/h (4 Bft) 93,62 %
29.06.2016 15:46 21,9 C 25,6 C 26,7 C 58 % 0 lf 1012,3 hPa 0,0 l/m 2 min 0 min 649 W/m 29,3 km/h (5 Bft) 95,65 %
29.06.2016 15:48 21,8 C 25,6 C 26,1 C 58 % 0 lf 1012,2 hPa 0,0 l/m 2 min 0 min 528 W/m 29,3 km/h (5 Bft) 91,49 %
29.06.2016 15:50 21,8 C 26,7 C 28,3 C 59 % 0 lf 1012,2 hPa 0,0 l/m 2 min 0 min 568 W/m 25,1 km/h (4 Bft) 93,62 %
29.06.2016 15:52 21,9 C 27,8 C 30,0 C 60 % 0 lf 1012,2 hPa 0,0 l/m 2 min 0 min 933 W/m 23,0 km/h (4 Bft) 95,74 %
29.06.2016 15:54 21,9 C 29,4 C 31,1 C 59 % 0 lf 1012,1 hPa 0,0 l/m 2 min 0 min 954 W/m 20,9 km/h (4 Bft) 93,62 %
29.06.2016 15:56 22,1 C 28,9 C 31,7 C 57 % 0 lf 1012,1 hPa 0,0 l/m 2 min 0 min 949 W/m 29,3 km/h (5 Bft) 93,62 %
29.06.2016 15:58 22,2 C 28,9 C 31,7 C 59 % 0 lf 1012,1 hPa 0,0 l/m 2 min 0 min 868 W/m 29,3 km/h (5 Bft) 97,83 %
29.06.2016 16:00 22,2 C 28,3 C 30,6 C 58 % 0 lf 1012,1 hPa 0,0 l/m 2 min 0 min 844 W/m 27,2 km/h (4 Bft) 97,87 %
29.06.2016 16:02 22,2 C 27,2 C 29,4 C 57 % 0 lf 1012,1 hPa 0,0 l/m 2 min 0 min 944 W/m 35,6 km/h (5 Bft) 97,87 %
29.06.2016 16:04 22,3 C 27,2 C 30,0 C 58 % 0 lf 1012,1 hPa 0,0 l/m 2 min 0 min 879 W/m 29,3 km/h (5 Bft) 95,74 %
29.06.2016 16:06 22,3 C 26,7 C 30,0 C 57 % 0 lf 1012,0 hPa 0,0 l/m 2 min 0 min 867 W/m 33,5 km/h (5 Bft) 97,14 %
29.06.2016 16:08 22,2 C 25,0 C 27,2 C 56 % 0 lf 1012,0 hPa 0,0 l/m 2 min 0 min 680 W/m 29,3 km/h (5 Bft) 95,74 %
29.06.2016 16:10 22,2 C 25,6 C 28,3 C 58 % 0 lf 1012,0 hPa 0,0 l/m 2 min 0 min 502 W/m 20,9 km/h (4 Bft) 94,83 %
29.06.2016 16:12 22,1 C 24,4 C 26,7 C 57 % 0 lf 1012,0 hPa 0,0 l/m 2 min 0 min 652 W/m 25,1 km/h (4 Bft) 97,87 %
29.06.2016 16:14 22,0 C 23,3 C 25,0 C 57 % 0 lf 1012,1 hPa 0,0 l/m 0 min 0 min 245 W/m 29,3 km/h (5 Bft) 97,87 %
29.06.2016 16:16 21,9 C 22,2 C 23,3 C 57 % 0 lf 1012,1 hPa 0,0 l/m 0 min 0 min 246 W/m 25,1 km/h (4 Bft) 95,74 %
29.06.2016 16:18 21,7 C 22,2 C 22,8 C 57 % 0 lf 1012,0 hPa 0,0 l/m 0 min 0 min 261 W/m 23,0 km/h (4 Bft) 97,14 %
29.06.2016 16:20 21,6 C 23,9 C 24,4 C 59 % 0 lf 1012,0 hPa 0,0 l/m 2 min 0 min 496 W/m 20,9 km/h (4 Bft) 96,61 %
29.06.2016 16:22 21,6 C 25,0 C 26,1 C 59 % 0 lf 1012,0 hPa 0,0 l/m 2 min 0 min 750 W/m 18,8 km/h (3 Bft) 97,14 %
29.06.2016 16:24 21,6 C 23,3 C 25,0 C 59 % 0 lf 1012,0 hPa 0,0 l/m 2 min 0 min 496 W/m 18,8 km/h (3 Bft) 98,28 %
29.06.2016 16:26 21,5 C 23,3 C 24,4 C 59 % 0 lf 1012,0 hPa 0,0 l/m 0 min 0 min 265 W/m 18,8 km/h (3 Bft) 97,14 %
29.06.2016 16:28 21,5 C 23,3 C 24,4 C 59 % 0 lf 1012,1 hPa 0,0 l/m 2 min 0 min 474 W/m 18,8 km/h (3 Bft) 97,87 %
29.06.2016 16:30 21,5 C 25,0 C 26,7 C 59 % 0 lf 1012,0 hPa 0,0 l/m 2 min 0 min 721 W/m 20,9 km/h (4 Bft) 100,00 %
29.06.2016 16:32 21,5 C 26,1 C 28,3 C 59 % 0 lf 1011,9 hPa 0,0 l/m 2 min 0 min 900 W/m 25,1 km/h (4 Bft) 98,11 %
29.06.2016 16:34 21,6 C 25,0 C 26,1 C 57 % 0 lf 1012,0 hPa 0,0 l/m 2 min 0 min 605 W/m 27,2 km/h (4 Bft) 95,74 %
29.06.2016 16:36 21,6 C 25,6 C 27,8 C 58 % 0 lf 1011,9 hPa 0,0 l/m 2 min 0 min 453 W/m 20,9 km/h (4 Bft) 100,00 %
29.06.2016 16:38 21,6 C 26,1 C 28,3 C 58 % 0 lf 1012,0 hPa 0,0 l/m 2 min 0 min 912 W/m 27,2 km/h (4 Bft) 97,87 %
29.06.2016 16:40 21,7 C 26,7 C 28,9 C 57 % 0 lf 1012,0 hPa 0,0 l/m 2 min 0 min 819 W/m 23,0 km/h (4 Bft) 97,87 %
29.06.2016 16:42 21,8 C 26,1 C 27,8 C 58 % 0 lf 1011,9 hPa 0,0 l/m 2 min 0 min 722 W/m 16,7 km/h (3 Bft) 100,00 %
29.06.2016 16:44 21,8 C 24,4 C 25,6 C 57 % 0 lf 1012,0 hPa 0,0 l/m 0 min 0 min 313 W/m 23,0 km/h (4 Bft) 97,87 %
29.06.2016 16:46 21,8 C 23,3 C 23,9 C 57 % 0 lf 1012,0 hPa 0,0 l/m 0 min 0 min 240 W/m 23,0 km/h (4 Bft) 97,87 %
29.06.2016 16:48 21,7 C 24,4 C 25,6 C 56 % 0 lf 1012,0 hPa 0,0 l/m 2 min 0 min 575 W/m 25,1 km/h (4 Bft) 95,65 %
29.06.2016 16:50 21,7 C 25,0 C 27,2 C 57 % 0 lf 1012,0 hPa 0,0 l/m 2 min 0 min 720 W/m 33,5 km/h (5 Bft) 95,74 %
29.06.2016 16:52 21,7 C 25,0 C 27,8 C 56 % 0 lf 1011,8 hPa 0,0 l/m 2 min 0 min 673 W/m 37,7 km/h (5 Bft) 97,87 %
29.06.2016 16:54 21,8 C 25,6 C 27,8 C 56 % 0 lf 1011,8 hPa 0,0 l/m 2 min 0 min 650 W/m 31,4 km/h (5 Bft) 97,87 %
29.06.2016 16:56 21,7 C 24,4 C 25,0 C 55 % 0 lf 1011,9 hPa 0,0 l/m 2 min 0 min 467 W/m 31,4 km/h (5 Bft) 95,74 %
29.06.2016 16:58 21,7 C 23,9 C 23,9 C 57 % 0 lf 1011,8 hPa 0,0 l/m 0 min 0 min 251 W/m 27,2 km/h (4 Bft) 95,74 %
29.06.2016 17:00 21,7 C 25,0 C 26,1 C 57 % 0 lf 1011,8 hPa 0,0 l/m 2 min 0 min 612 W/m 20,9 km/h (4 Bft) 97,83 %
29.06.2016 17:02 21,7 C 26,1 C 27,8 C 58 % 0 lf 1011,9 hPa 0,0 l/m 2 min 0 min 747 W/m 16,7 km/h (3 Bft) 95,74 %
29.06.2016 17:04 21,8 C 27,8 C 28,9 C 59 % 0 lf 1011,8 hPa 0,0 l/m 2 min 0 min 721 W/m 18,8 km/h (3 Bft) 97,87 %
29.06.2016 17:06 21,9 C 27,8 C 29,4 C 58 % 0 lf 1011,6 hPa 0,0 l/m 2 min 0 min 740 W/m 12,6 km/h (3 Bft) 96,00 %
29.06.2016 17:08 22,0 C 27,2 C 28,3 C 59 % 0 lf 1011,5 hPa 0,0 l/m 2 min 0 min 725 W/m 18,8 km/h (3 Bft) 95,65 %
29.06.2016 17:10 22,1 C 25,6 C 26,1 C 59 % 0 lf 1011,5 hPa 0,0 l/m 2 min 0 min 339 W/m 29,3 km/h (5 Bft) 97,87 %
29.06.2016 17:12 22,1 C 24,4 C 24,4 C 56 % 0 lf 1011,5 hPa 0,0 l/m 0 min 0 min 298 W/m 29,3 km/h (5 Bft) 93,62 %
29.06.2016 17:14 22,0 C 23,9 C 23,3 C 57 % 0 lf 1011,5 hPa 0,0 l/m 0 min 0 min 282 W/m 23,0 km/h (4 Bft) 97,87 %
29.06.2016 17:16 21,9 C 23,3 C 22,8 C 57 % 0 lf 1011,4 hPa 0,0 l/m 2 min 0 min 312 W/m 27,2 km/h (4 Bft) 95,74 %
29.06.2016 17:18 21,9 C 23,3 C 22,8 C 57 % 0 lf 1011,4 hPa 0,0 l/m 2 min 0 min 357 W/m 23,0 km/h (4 Bft) 89,36 %
29.06.2016 17:20 21,8 C 23,3 C 23,3 C 57 % 0 lf 1011,5 hPa 0,0 l/m 2 min 0 min 398 W/m 20,9 km/h (4 Bft) 97,83 %
29.06.2016 17:22 21,8 C 23,3 C 23,3 C 57 % 0 lf 1011,4 hPa 0,0 l/m 2 min 0 min 402 W/m 18,8 km/h (3 Bft) 97,87 %
29.06.2016 17:24 21,8 C 22,8 C 23,3 C 58 % 0 lf 1011,4 hPa 0,0 l/m 2 min 0 min 357 W/m 16,7 km/h (3 Bft) 97,87 %
29.06.2016 17:26 21,7 C 23,3 C 23,3 C 59 % 0 lf 1011,4 hPa 0,0 l/m 2 min 0 min 346 W/m 18,8 km/h (3 Bft) 93,62 %
29.06.2016 17:28 21,7 C 23,3 C 23,3 C 58 % 0 lf 1011,5 hPa 0,0 l/m 2 min 0 min 344 W/m 18,8 km/h (3 Bft) 95,74 %
29.06.2016 17:30 21,7 C 23,3 C 22,8 C 59 % 0 lf 1011,4 hPa 0,0 l/m 2 min 0 min 343 W/m 27,2 km/h (4 Bft) 89,36 %
29.06.2016 17:32 21,6 C 23,3 C 22,8 C 59 % 0 lf 1011,5 hPa 0,0 l/m 2 min 0 min 320 W/m 23,0 km/h (4 Bft) 93,48 %
29.06.2016 17:34 21,6 C 23,3 C 22,8 C 60 % 0 lf 1011,5 hPa 0,0 l/m 2 min 0 min 312 W/m 16,7 km/h (3 Bft) 95,74 %
29.06.2016 17:36 21,6 C 23,3 C 22,8 C 59 % 0 lf 1011,5 hPa 0,0 l/m 2 min 0 min 291 W/m 18,8 km/h (3 Bft) 95,74 %
29.06.2016 17:38 21,6 C 23,3 C 22,8 C 59 % 0 lf 1011,4 hPa 0,0 l/m 0 min 0 min 257 W/m 16,7 km/h (3 Bft) 95,74 %
29.06.2016 17:40 21,6 C 23,3 C 22,8 C 59 % 0 lf 1011,4 hPa 0,0 l/m 0 min 0 min 253 W/m 16,7 km/h (3 Bft) 97,87 %
29.06.2016 17:42 21,5 C 22,8 C 22,2 C 58 % 0 lf 1011,4 hPa 0,0 l/m 0 min 0 min 265 W/m 18,8 km/h (3 Bft) 95,74 %
29.06.2016 17:44 21,5 C 22,8 C 22,2 C 59 % 0 lf 1011,3 hPa 0,0 l/m 0 min 0 min 273 W/m 14,6 km/h (3 Bft) 97,83 %
29.06.2016 17:46 21,4 C 22,8 C 22,2 C 58 % 0 lf 1011,3 hPa 0,0 l/m 0 min 0 min 270 W/m 16,7 km/h (3 Bft) 97,87 %
29.06.2016 17:48 21,4 C 22,8 C 21,7 C 58 % 0 lf 1011,2 hPa 0,0 l/m 0 min 0 min 262 W/m 12,6 km/h (3 Bft) 95,74 %
29.06.2016 17:50 21,4 C 22,8 C 21,7 C 58 % 0 lf 1011,2 hPa 0,0 l/m 0 min 0 min 255 W/m 18,8 km/h (3 Bft) 97,87 %
29.06.2016 17:52 21,3 C 22,2 C 21,7 C 57 % 0 lf 1011,3 hPa 0,0 l/m 0 min 0 min 269 W/m 27,2 km/h (4 Bft) 95,74 %
29.06.2016 17:54 21,3 C 22,2 C 21,7 C 59 % 0 lf 1011,3 hPa 0,0 l/m 2 min 0 min 287 W/m 20,9 km/h (4 Bft) 95,65 %
29.06.2016 17:56 21,3 C 22,8 C 22,2 C 59 % 0 lf 1011,4 hPa 0,0 l/m 2 min 0 min 323 W/m 10,5 km/h (2 Bft) 95,74 %
29.06.2016 17:58 21,2 C 22,8 C 22,2 C 59 % 0 lf 1011,3 hPa 0,0 l/m 2 min 0 min 388 W/m 16,7 km/h (3 Bft) 93,62 %
29.06.2016 18:00 21,2 C 22,8 C 22,2 C 60 % 0 lf 1011,2 hPa 0,0 l/m 2 min 0 min 372 W/m 23,0 km/h (4 Bft) 95,74 %
29.06.2016 18:02 21,2 C 22,8 C 22,2 C 59 % 0 lf 1011,2 hPa 0,0 l/m 2 min 0 min 362 W/m 18,8 km/h (3 Bft) 95,74 %
29.06.2016 18:04 21,2 C 22,8 C 22,2 C 60 % 0 lf 1011,2 hPa 0,0 l/m 2 min 0 min 396 W/m 16,7 km/h (3 Bft) 95,74 %
29.06.2016 18:06 21,2 C 22,8 C 21,7 C 59 % 0 lf 1011,2 hPa 0,0 l/m 2 min 0 min 331 W/m 20,9 km/h (4 Bft) 95,12 %
29.06.2016 18:08 21,2 C 22,2 C 21,7 C 59 % 0 lf 1011,2 hPa 0,0 l/m 2 min 0 min 350 W/m 16,7 km/h (3 Bft) 95,74 %
29.06.2016 18:10 21,2 C 22,2 C 21,7 C 59 % 0 lf 1011,2 hPa 0,0 l/m 2 min 0 min 438 W/m 16,7 km/h (3 Bft) 93,48 %
29.06.2016 18:12 21,2 C 22,2 C 21,7 C 59 % 0 lf 1011,2 hPa 0,0 l/m 2 min 0 min 518 W/m 16,7 km/h (3 Bft) 93,62 %
29.06.2016 18:14 21,2 C 22,2 C 22,2 C 59 % 0 lf 1011,2 hPa 0,0 l/m 2 min 0 min 565 W/m 16,7 km/h (3 Bft) 95,74 %
29.06.2016 18:16 21,2 C 22,2 C 22,2 C 59 % 0 lf 1011,2 hPa 0,0 l/m 2 min 0 min 547 W/m 14,6 km/h (3 Bft) 95,74 %
29.06.2016 18:18 21,2 C 22,2 C 21,7 C 60 % 0 lf 1011,2 hPa 0,0 l/m 2 min 0 min 448 W/m 25,1 km/h (4 Bft) 95,74 %
29.06.2016 18:20 21,2 C 22,2 C 21,1 C 60 % 0 lf 1011,2 hPa 0,0 l/m 2 min 0 min 315 W/m 27,2 km/h (4 Bft) 91,49 %
29.06.2016 18:22 21,1 C 22,2 C 21,1 C 59 % 0 lf 1011,2 hPa 0,0 l/m 2 min 0 min 361 W/m 18,8 km/h (3 Bft) 97,83 %
29.06.2016 18:24 21,1 C 22,2 C 21,1 C 59 % 0 lf 1011,2 hPa 0,0 l/m 2 min 0 min 404 W/m 18,8 km/h (3 Bft) 95,74 %
29.06.2016 18:26 21,1 C 22,2 C 21,1 C 59 % 0 lf 1011,1 hPa 0,0 l/m 2 min 0 min 385 W/m 29,3 km/h (5 Bft) 91,49 %
29.06.2016 18:28 21,1 C 22,2 C 21,1 C 57 % 0 lf 1011,2 hPa 0,0 l/m 2 min 0 min 492 W/m 20,9 km/h (4 Bft) 93,62 %
29.06.2016 18:30 21,1 C 22,8 C 21,1 C 58 % 0 lf 1011,2 hPa 0,0 l/m 2 min 0 min 568 W/m 29,3 km/h (5 Bft) 91,49 %
29.06.2016 18:32 21,1 C 22,8 C 21,1 C 56 % 0 lf 1011,1 hPa 0,0 l/m 2 min 0 min 544 W/m 27,2 km/h (4 Bft) 95,83 %
29.06.2016 18:34 21,2 C 22,8 C 21,1 C 58 % 0 lf 1011,1 hPa 0,0 l/m 2 min 0 min 460 W/m 18,8 km/h (3 Bft) 95,65 %
29.06.2016 18:36 21,2 C 22,2 C 20,6 C 58 % 0 lf 1011,1 hPa 0,0 l/m 2 min 0 min 288 W/m 25,1 km/h (4 Bft) 94,23 %
29.06.2016 18:38 21,2 C 22,2 C 20,6 C 58 % 0 lf 1011,1 hPa 0,0 l/m 0 min 0 min 170 W/m 18,8 km/h (3 Bft) 93,62 %
29.06.2016 18:40 21,1 C 21,7 C 20,0 C 57 % 0 lf 1011,1 hPa 0,0 l/m 0 min 0 min 171 W/m 29,3 km/h (5 Bft) 91,49 %
29.06.2016 18:42 21,1 C 21,7 C 20,6 C 58 % 0 lf 1011,1 hPa 0,0 l/m 0 min 0 min 202 W/m 14,6 km/h (3 Bft) 93,48 %
29.06.2016 18:44 21,1 C 21,7 C 20,6 C 57 % 0 lf 1011,1 hPa 0,0 l/m 0 min 0 min 197 W/m 14,6 km/h (3 Bft) 93,62 %
29.06.2016 18:46 21,1 C 21,7 C 20,6 C 58 % 0 lf 1011,1 hPa 0,0 l/m 0 min 0 min 173 W/m 14,6 km/h (3 Bft) 95,74 %
29.06.2016 18:48 21,0 C 21,7 C 20,6 C 59 % 0 lf 1011,1 hPa 0,0 l/m 0 min 0 min 157 W/m 16,7 km/h (3 Bft) 93,62 %
29.06.2016 18:50 21,0 C 21,7 C 20,6 C 59 % 0 lf 1011,1 hPa 0,0 l/m 0 min 0 min 143 W/m 14,6 km/h (3 Bft) 95,74 %
29.06.2016 18:52 21,0 C 21,1 C 20,0 C 59 % 0 lf 1011,0 hPa 0,0 l/m 0 min 0 min 133 W/m 18,8 km/h (3 Bft) 97,87 %
29.06.2016 18:54 20,9 C 21,1 C 20,0 C 60 % 0 lf 1011,0 hPa 0,0 l/m 0 min 0 min 125 W/m 16,7 km/h (3 Bft) 89,13 %
29.06.2016 18:56 20,9 C 21,1 C 20,0 C 60 % 0 lf 1011,1 hPa 0,0 l/m 0 min 0 min 120 W/m 12,6 km/h (3 Bft) 97,87 %
29.06.2016 18:58 20,9 C 21,1 C 20,0 C 60 % 0 lf 1011,0 hPa 0,0 l/m 0 min 0 min 114 W/m 12,6 km/h (3 Bft) 89,36 %
29.06.2016 19:00 20,8 C 21,1 C 20,0 C 61 % 0 lf 1011,1 hPa 0,0 l/m 0 min 0 min 104 W/m 10,5 km/h (2 Bft) 97,87 %
29.06.2016 19:02 20,8 C 21,1 C 19,4 C 61 % 0 lf 1011,1 hPa 0,0 l/m 0 min 0 min 98 W/m 10,5 km/h (2 Bft) 100,00 %
29.06.2016 19:04 20,8 C 20,6 C 19,4 C 61 % 0 lf 1011,2 hPa 0,0 l/m 0 min 0 min 95 W/m 16,7 km/h (3 Bft) 100,00 %
29.06.2016 19:06 20,7 C 20,6 C 19,4 C 61 % 0 lf 1011,2 hPa 0,0 l/m 0 min 0 min 90 W/m 14,6 km/h (3 Bft) 97,56 %
29.06.2016 19:08 20,7 C 20,6 C 19,4 C 61 % 0 lf 1011,2 hPa 0,0 l/m 0 min 0 min 85 W/m 20,9 km/h (4 Bft) 100,00 %
29.06.2016 19:10 20,6 C 20,6 C 19,4 C 61 % 0 lf 1011,2 hPa 0,0 l/m 0 min 0 min 77 W/m 12,6 km/h (3 Bft) 95,74 %
29.06.2016 19:12 20,6 C 20,6 C 18,9 C 62 % 0 lf 1011,1 hPa 0,0 l/m 0 min 0 min 70 W/m 16,7 km/h (3 Bft) 100,00 %
29.06.2016 19:14 20,6 C 20,6 C 18,9 C 62 % 0 lf 1011,1 hPa 0,0 l/m 0 min 0 min 63 W/m 10,5 km/h (2 Bft) 100,00 %
29.06.2016 19:16 20,6 C 20,6 C 18,9 C 62 % 0 lf 1011,2 hPa 0,0 l/m 0 min 0 min 61 W/m 8,4 km/h (2 Bft) 97,87 %
29.06.2016 19:18 20,5 C 20,6 C 18,9 C 62 % 0 lf 1011,2 hPa 0,0 l/m 0 min 0 min 62 W/m 10,5 km/h (2 Bft) 100,00 %
29.06.2016 19:20 20,5 C 20,0 C 18,9 C 62 % 0 lf 1011,2 hPa 0,0 l/m 0 min 0 min 64 W/m 10,5 km/h (2 Bft) 100,00 %
29.06.2016 19:22 20,4 C 20,0 C 18,9 C 63 % 0 lf 1011,2 hPa 0,0 l/m 0 min 0 min 66 W/m 10,5 km/h (2 Bft) 97,87 %
29.06.2016 19:24 20,4 C 20,0 C 18,9 C 63 % 0 lf 1011,2 hPa 0,0 l/m 0 min 0 min 70 W/m 8,4 km/h (2 Bft) 100,00 %
29.06.2016 19:26 20,4 C 20,0 C 18,9 C 63 % 0 lf 1011,3 hPa 0,0 l/m 0 min 0 min 77 W/m 8,4 km/h (2 Bft) 97,87 %
29.06.2016 19:28 20,3 C 20,6 C 18,9 C 64 % 0 lf 1011,2 hPa 0,0 l/m 0 min 0 min 89 W/m 8,4 km/h (2 Bft) 97,87 %
29.06.2016 19:30 20,3 C 20,6 C 18,9 C 64 % 0 lf 1011,2 hPa 0,0 l/m 0 min 0 min 101 W/m 8,4 km/h (2 Bft) 100,00 %
29.06.2016 19:32 20,3 C 20,6 C 19,4 C 64 % 0 lf 1011,3 hPa 0,0 l/m 0 min 0 min 112 W/m 8,4 km/h (2 Bft) 100,00 %
29.06.2016 19:34 20,3 C 20,6 C 19,4 C 65 % 0 lf 1011,3 hPa 0,0 l/m 0 min 0 min 116 W/m 12,6 km/h (3 Bft) 100,00 %
29.06.2016 19:36 20,2 C 20,6 C 19,4 C 64 % 0 lf 1011,3 hPa 0,0 l/m 0 min 0 min 118 W/m 12,6 km/h (3 Bft) 96,15 %
29.06.2016 19:38 20,2 C 20,6 C 19,4 C 64 % 0 lf 1011,3 hPa 0,0 l/m 0 min 0 min 114 W/m 6,3 km/h (2 Bft) 97,87 %
29.06.2016 19:40 20,2 C 20,6 C 19,4 C 64 % 0 lf 1011,3 hPa 0,0 l/m 0 min 0 min 108 W/m 6,3 km/h (2 Bft) 97,83 %
29.06.2016 19:42 20,2 C 20,6 C 19,4 C 65 % 0 lf 1011,3 hPa 0,0 l/m 0 min 0 min 101 W/m 8,4 km/h (2 Bft) 97,87 %
29.06.2016 19:44 20,2 C 20,6 C 19,4 C 65 % 0 lf 1011,3 hPa 0,0 l/m 0 min 0 min 95 W/m 10,5 km/h (2 Bft) 97,87 %
29.06.2016 19:46 20,2 C 20,6 C 19,4 C 64 % 0 lf 1011,3 hPa 0,0 l/m 0 min 0 min 90 W/m 8,4 km/h (2 Bft) 97,87 %
29.06.2016 19:48 20,2 C 20,6 C 19,4 C 65 % 0 lf 1011,3 hPa 0,0 l/m 0 min 0 min 83 W/m 6,3 km/h (2 Bft) 97,87 %
29.06.2016 19:50 20,2 C 20,6 C 19,4 C 66 % 0 lf 1011,3 hPa 0,0 l/m 0 min 0 min 78 W/m 8,4 km/h (2 Bft) 93,62 %
29.06.2016 19:52 20,2 C 20,6 C 18,9 C 66 % 0 lf 1011,3 hPa 0,0 l/m 0 min 0 min 71 W/m 10,5 km/h (2 Bft) 97,83 %
29.06.2016 19:54 20,2 C 20,0 C 18,9 C 65 % 0 lf 1011,3 hPa 0,0 l/m 0 min 0 min 66 W/m 8,4 km/h (2 Bft) 100,00 %
29.06.2016 19:56 20,1 C 20,0 C 18,9 C 65 % 0 lf 1011,3 hPa 0,0 l/m 0 min 0 min 62 W/m 12,6 km/h (3 Bft) 95,74 %
29.06.2016 19:58 20,1 C 20,0 C 18,9 C 65 % 0 lf 1011,2 hPa 0,0 l/m 0 min 0 min 62 W/m 8,4 km/h (2 Bft) 97,87 %
29.06.2016 20:00 20,1 C 20,0 C 18,9 C 66 % 0 lf 1011,3 hPa 0,0 l/m 0 min 0 min 62 W/m 10,5 km/h (2 Bft) 97,87 %
29.06.2016 20:02 20,1 C 20,0 C 18,9 C 66 % 0 lf 1011,3 hPa 0,0 l/m 0 min 0 min 62 W/m 8,4 km/h (2 Bft) 93,62 %
29.06.2016 20:04 20,1 C 20,0 C 18,9 C 66 % 0 lf 1011,2 hPa 0,0 l/m 0 min 0 min 61 W/m 8,4 km/h (2 Bft) 97,83 %
29.06.2016 20:06 20,0 C 20,0 C 18,9 C 65 % 0 lf 1011,2 hPa 0,0 l/m 0 min 0 min 58 W/m 12,6 km/h (3 Bft) 97,62 %
29.06.2016 20:08 20,0 C 20,0 C 18,3 C 65 % 0 lf 1011,2 hPa 0,0 l/m 0 min 0 min 54 W/m 10,5 km/h (2 Bft) 93,48 %
29.06.2016 20:10 19,9 C 20,0 C 18,3 C 65 % 0 lf 1011,1 hPa 0,0 l/m 0 min 0 min 51 W/m 12,6 km/h (3 Bft) 95,74 %
29.06.2016 20:12 19,9 C 20,0 C 18,3 C 65 % 0 lf 1011,2 hPa 0,0 l/m 0 min 0 min 46 W/m 8,4 km/h (2 Bft) 93,62 %
29.06.2016 20:14 19,9 C 20,0 C 18,3 C 65 % 0 lf 1011,2 hPa 0,0 l/m 0 min 0 min 44 W/m 8,4 km/h (2 Bft) 97,87 %
29.06.2016 20:16 19,9 C 20,0 C 18,3 C 65 % 0 lf 1011,2 hPa 0,0 l/m 0 min 0 min 44 W/m 6,3 km/h (2 Bft) 97,87 %
29.06.2016 20:18 19,8 C 19,4 C 18,3 C 65 % 0 lf 1011,2 hPa 0,0 l/m 0 min 0 min 46 W/m 6,3 km/h (2 Bft) 93,62 %
29.06.2016 20:20 19,8 C 19,4 C 18,3 C 65 % 0 lf 1011,2 hPa 0,0 l/m 0 min 0 min 47 W/m 12,6 km/h (3 Bft) 97,83 %
29.06.2016 20:22 19,8 C 19,4 C 18,3 C 65 % 0 lf 1011,1 hPa 0,0 l/m 0 min 0 min 46 W/m 8,4 km/h (2 Bft) 95,74 %
29.06.2016 20:24 19,8 C 19,4 C 18,3 C 65 % 0 lf 1011,1 hPa 0,0 l/m 0 min 0 min 42 W/m 6,3 km/h (2 Bft) 93,62 %
29.06.2016 20:26 19,8 C 19,4 C 18,3 C 65 % 0 lf 1010,9 hPa 0,0 l/m 0 min 0 min 40 W/m 6,3 km/h (2 Bft) 100,00 %
29.06.2016 20:28 19,8 C 19,4 C 18,3 C 65 % 0 lf 1010,9 hPa 0,0 l/m 0 min 0 min 37 W/m 6,3 km/h (2 Bft) 97,87 %
29.06.2016 20:30 19,7 C 19,4 C 18,3 C 65 % 0 lf 1010,9 hPa 0,0 l/m 0 min 0 min 37 W/m 10,5 km/h (2 Bft) 95,65 %
29.06.2016 20:32 19,7 C 19,4 C 18,3 C 65 % 0 lf 1010,9 hPa 0,0 l/m 0 min 0 min 39 W/m 8,4 km/h (2 Bft) 95,83 %
29.06.2016 20:34 19,7 C 19,4 C 17,8 C 65 % 0 lf 1010,8 hPa 0,0 l/m 0 min 0 min 39 W/m 8,4 km/h (2 Bft) 95,74 %
29.06.2016 20:36 19,7 C 19,4 C 17,8 C 65 % 0 lf 1010,9 hPa 0,0 l/m 0 min 0 min 39 W/m 6,3 km/h (2 Bft) 96,15 %
29.06.2016 20:38 19,7 C 19,4 C 17,8 C 66 % 0 lf 1010,9 hPa 0,0 l/m 0 min 0 min 39 W/m 8,4 km/h (2 Bft) 97,83 %
29.06.2016 20:40 19,6 C 19,4 C 17,8 C 66 % 0 lf 1010,9 hPa 0,0 l/m 0 min 0 min 39 W/m 8,4 km/h (2 Bft) 97,87 %
29.06.2016 20:42 19,6 C 19,4 C 17,8 C 67 % 0 lf 1010,9 hPa 0,0 l/m 0 min 0 min 39 W/m 6,3 km/h (2 Bft) 97,87 %
29.06.2016 20:44 19,6 C 19,4 C 17,8 C 67 % 0 lf 1010,9 hPa 0,0 l/m 0 min 0 min 36 W/m 6,3 km/h (2 Bft) 97,87 %
29.06.2016 20:46 19,6 C 19,4 C 17,8 C 68 % 0 lf 1010,9 hPa 0,0 l/m 0 min 0 min 34 W/m 4,2 km/h (1 Bft) 93,62 %
29.06.2016 20:48 19,6 C 19,4 C 17,8 C 68 % 0 lf 1010,9 hPa 0,0 l/m 0 min 0 min 32 W/m 8,4 km/h (2 Bft) 95,74 %
29.06.2016 20:50 19,6 C 18,9 C 17,8 C 68 % 0 lf 1011,0 hPa 0,0 l/m 0 min 0 min 30 W/m 8,4 km/h (2 Bft) 93,48 %
29.06.2016 20:52 19,6 C 18,9 C 17,8 C 68 % 0 lf 1010,9 hPa 0,0 l/m 0 min 0 min 28 W/m 8,4 km/h (2 Bft) 95,74 %
29.06.2016 20:54 19,5 C 18,9 C 17,8 C 68 % 0 lf 1011,0 hPa 0,0 l/m 0 min 0 min 26 W/m 8,4 km/h (2 Bft) 93,62 %
29.06.2016 20:56 19,5 C 18,9 C 17,8 C 67 % 0 lf 1010,9 hPa 0,0 l/m 0 min 0 min 25 W/m 4,2 km/h (1 Bft) 91,49 %
29.06.2016 20:58 19,4 C 18,9 C 17,2 C 67 % 0 lf 1011,0 hPa 0,0 l/m 0 min 0 min 23 W/m 6,3 km/h (2 Bft) 93,62 %
29.06.2016 21:00 19,4 C 18,9 C 17,2 C 67 % 0 lf 1011,0 hPa 0,0 l/m 0 min 0 min 22 W/m 4,2 km/h (1 Bft) 93,62 %
29.06.2016 21:02 19,4 C 18,9 C 17,2 C 67 % 0 lf 1010,9 hPa 0,0 l/m 0 min 0 min 21 W/m 4,2 km/h (1 Bft) 95,65 %
29.06.2016 21:04 19,4 C 18,9 C 17,2 C 67 % 0 lf 1010,9 hPa 0,0 l/m 0 min 0 min 20 W/m 6,3 km/h (2 Bft) 97,87 %
29.06.2016 21:06 19,4 C 18,9 C 17,2 C 68 % 0 lf 1010,9 hPa 0,0 l/m 0 min 0 min 19 W/m 4,2 km/h (1 Bft) 92,68 %
29.06.2016 21:08 19,4 C 18,9 C 17,2 C 68 % 0 lf 1011,0 hPa 0,0 l/m 0 min 0 min 19 W/m 4,2 km/h (1 Bft) 97,87 %
29.06.2016 21:10 19,3 C 18,9 C 17,2 C 68 % 0 lf 1010,9 hPa 0,0 l/m 0 min 0 min 18 W/m 6,3 km/h (2 Bft) 97,87 %
29.06.2016 21:12 19,3 C 18,9 C 17,2 C 68 % 0 lf 1010,9 hPa 0,0 l/m 0 min 0 min 17 W/m 6,3 km/h (2 Bft) 95,74 %
29.06.2016 21:14 19,3 C 18,9 C 17,2 C 68 % 0 lf 1011,0 hPa 0,0 l/m 0 min 0 min 16 W/m 6,3 km/h (2 Bft) 97,87 %
29.06.2016 21:16 19,3 C 18,9 C 17,2 C 68 % 0 lf 1010,9 hPa 0,0 l/m 0 min 0 min 16 W/m 6,3 km/h (2 Bft) 89,36 %
29.06.2016 21:18 19,2 C 18,3 C 17,2 C 68 % 0 lf 1011,0 hPa 0,0 l/m 0 min 0 min 14 W/m 4,2 km/h (1 Bft) 95,65 %
29.06.2016 21:20 19,2 C 18,3 C 16,7 C 68 % 0 lf 1010,9 hPa 0,0 l/m 0 min 0 min 13 W/m 4,2 km/h (1 Bft) 93,62 %
29.06.2016 21:22 19,2 C 18,3 C 16,7 C 68 % 0 lf 1010,9 hPa 0,0 l/m 0 min 0 min 12 W/m 6,3 km/h (2 Bft) 93,62 %
29.06.2016 21:24 19,1 C 18,3 C 16,7 C 68 % 0 lf 1010,9 hPa 0,0 l/m 0 min 0 min 12 W/m 4,2 km/h (1 Bft) 95,74 %
29.06.2016 21:26 19,1 C 18,3 C 16,7 C 68 % 0 lf 1010,8 hPa 0,0 l/m 0 min 0 min 11 W/m 4,2 km/h (1 Bft) 95,74 %
29.06.2016 21:28 19,1 C 18,3 C 16,7 C 68 % 0 lf 1010,8 hPa 0,0 l/m 0 min 0 min 11 W/m 2,1 km/h (1 Bft) 93,62 %
29.06.2016 21:30 19,1 C 18,3 C 16,7 C 68 % 0 lf 1010,7 hPa 0,0 l/m 0 min 0 min 10 W/m 6,3 km/h (2 Bft) 95,65 %
29.06.2016 21:32 19,0 C 18,3 C 16,7 C 68 % 0 lf 1010,7 hPa 0,0 l/m 0 min 0 min 9 W/m 4,2 km/h (1 Bft) 95,83 %
29.06.2016 21:34 19,0 C 18,3 C 16,7 C 68 % 0 lf 1010,7 hPa 0,0 l/m 0 min 0 min 8 W/m 4,2 km/h (1 Bft) 95,74 %
29.06.2016 21:36 19,0 C 18,3 C 16,7 C 68 % 0 lf 1010,7 hPa 0,0 l/m 0 min 0 min 7 W/m 6,3 km/h (2 Bft) 94,23 %
29.06.2016 21:38 18,9 C 18,3 C 16,1 C 68 % 0 lf 1010,7 hPa 0,0 l/m 0 min 0 min 7 W/m 6,3 km/h (2 Bft) 95,65 %
29.06.2016 21:40 18,9 C 18,3 C 16,1 C 68 % 0 lf 1010,7 hPa 0,0 l/m 0 min 0 min 7 W/m 4,2 km/h (1 Bft) 95,74 %
29.06.2016 21:42 18,9 C 18,3 C 16,1 C 69 % 0 lf 1010,7 hPa 0,0 l/m 0 min 0 min 7 W/m 4,2 km/h (1 Bft) 95,74 %
29.06.2016 21:44 18,9 C 18,3 C 16,1 C 69 % 0 lf 1010,6 hPa 0,0 l/m 0 min 0 min 6 W/m 4,2 km/h (1 Bft) 93,62 %
29.06.2016 21:46 18,8 C 18,3 C 16,1 C 69 % 0 lf 1010,7 hPa 0,0 l/m 0 min 0 min 5 W/m 4,2 km/h (1 Bft) 95,74 %
29.06.2016 21:48 18,8 C 18,3 C 16,1 C 69 % 0 lf 1010,7 hPa 0,0 l/m 0 min 0 min 5 W/m 4,2 km/h (1 Bft) 91,49 %
29.06.2016 21:50 18,8 C 18,3 C 16,1 C 69 % 0 lf 1010,7 hPa 0,0 l/m 0 min 0 min 5 W/m 4,2 km/h (1 Bft) 95,65 %
29.06.2016 21:52 18,8 C 18,3 C 16,1 C 69 % 0 lf 1010,6 hPa 0,0 l/m 0 min 0 min 5 W/m 4,2 km/h (1 Bft) 95,74 %
29.06.2016 21:54 18,8 C 17,8 C 16,1 C 69 % 0 lf 1010,6 hPa 0,0 l/m 0 min 0 min 1 W/m 2,1 km/h (1 Bft) 95,74 %
29.06.2016 21:56 18,8 C 17,8 C 16,1 C 69 % 0 lf 1010,6 hPa 0,0 l/m 0 min 0 min 0 W/m 2,1 km/h (1 Bft) 93,62 %
29.06.2016 21:58 18,7 C 17,8 C 15,6 C 70 % 0 lf 1010,6 hPa 0,0 l/m 0 min 0 min 0 W/m 0,0 km/h (0 Bft) 95,74 %
29.06.2016 22:00 18,7 C 17,8 C 15,6 C 71 % 0 lf 1010,6 hPa 0,0 l/m 0 min 0 min 0 W/m 0,0 km/h (0 Bft) 95,65 %
29.06.2016 22:02 18,7 C 17,8 C 15,6 C 71 % 0 lf 1010,6 hPa 0,0 l/m 0 min 0 min 0 W/m 0,0 km/h (0 Bft) 93,62 %
29.06.2016 22:04 18,7 C 17,8 C 15,6 C 72 % 0 lf 1010,6 hPa 0,0 l/m 0 min 0 min 0 W/m 0,0 km/h (0 Bft) 93,62 %
29.06.2016 22:06 18,7 C 17,8 C 15,6 C 72 % 0 lf 1010,6 hPa 0,0 l/m 0 min 0 min 0 W/m 0,0 km/h (0 Bft) 97,62 %
29.06.2016 22:08 18,7 C 17,8 C 15,6 C 73 % 0 lf 1010,6 hPa 0,0 l/m 0 min 0 min 0 W/m 2,1 km/h (1 Bft) 97,87 %
29.06.2016 22:10 18,6 C 17,8 C 15,6 C 73 % 0 lf 1010,6 hPa 0,0 l/m 0 min 0 min 0 W/m 2,1 km/h (1 Bft) 100,00 %
29.06.2016 22:12 18,6 C 17,8 C 15,6 C 74 % 0 lf 1010,6 hPa 0,0 l/m 0 min 0 min 0 W/m 4,2 km/h (1 Bft) 100,00 %
29.06.2016 22:14 18,6 C 17,8 C 15,6 C 74 % 0 lf 1010,6 hPa 0,0 l/m 0 min 0 min 0 W/m 2,1 km/h (1 Bft) 100,00 %
29.06.2016 22:16 18,6 C 17,8 C 15,6 C 74 % 0 lf 1010,6 hPa 0,0 l/m 0 min 0 min 0 W/m 2,1 km/h (1 Bft) 100,00 %
29.06.2016 22:18 18,5 C 17,8 C 15,6 C 74 % 0 lf 1010,6 hPa 0,0 l/m 0 min 0 min 0 W/m 2,1 km/h (1 Bft) 93,62 %
29.06.2016 22:20 18,5 C 17,8 C 15,6 C 74 % 0 lf 1010,6 hPa 0,0 l/m 0 min 0 min 0 W/m 4,2 km/h (1 Bft) 98,04 %
29.06.2016 22:22 18,4 C 17,8 C 15,6 C 74 % 0 lf 1010,6 hPa 0,0 l/m 0 min 0 min 0 W/m 4,2 km/h (1 Bft) 97,92 %
29.06.2016 22:24 18,4 C 17,8 C 15,6 C 73 % 0 lf 1010,7 hPa 0,0 l/m 0 min 0 min 0 W/m 4,2 km/h (1 Bft) 97,83 %
29.06.2016 22:26 18,4 C 17,8 C 15,6 C 73 % 0 lf 1010,6 hPa 0,0 l/m 0 min 0 min 0 W/m 4,2 km/h (1 Bft) 97,87 %
29.06.2016 22:28 18,3 C 17,8 C 15,6 C 73 % 0 lf 1010,6 hPa 0,0 l/m 0 min 0 min 0 W/m 2,1 km/h (1 Bft) 100,00 %
29.06.2016 22:30 18,3 C 17,8 C 15,6 C 73 % 0 lf 1010,6 hPa 0,0 l/m 0 min 0 min 0 W/m 4,2 km/h (1 Bft) 100,00 %
29.06.2016 22:32 18,3 C 17,8 C 15,6 C 73 % 0 lf 1010,6 hPa 0,0 l/m 0 min 0 min 0 W/m 4,2 km/h (1 Bft) 100,00 %
29.06.2016 22:34 18,2 C 17,8 C 15,6 C 73 % 0 lf 1010,6 hPa 0,0 l/m 0 min 0 min 0 W/m 4,2 km/h (1 Bft) 97,87 %
29.06.2016 22:36 18,2 C 17,8 C 15,6 C 73 % 0 lf 1010,7 hPa 0,0 l/m 0 min 0 min 0 W/m 4,2 km/h (1 Bft) 93,48 %
29.06.2016 22:38 18,2 C 17,8 C 15,6 C 73 % 0 lf 1010,7 hPa 0,0 l/m 0 min 0 min 0 W/m 4,2 km/h (1 Bft) 100,00 %
29.06.2016 22:40 18,1 C 17,8 C 16,1 C 73 % 0 lf 1010,6 hPa 0,0 l/m 0 min 0 min 0 W/m 4,2 km/h (1 Bft) 100,00 %
29.06.2016 22:42 18,1 C 17,8 C 15,6 C 73 % 0 lf 1010,6 hPa 0,0 l/m 0 min 0 min 0 W/m 6,3 km/h (2 Bft) 100,00 %
29.06.2016 22:44 18,1 C 17,8 C 16,1 C 73 % 0 lf 1010,6 hPa 0,0 l/m 0 min 0 min 0 W/m 4,2 km/h (1 Bft) 100,00 %
29.06.2016 22:46 18,1 C 17,8 C 16,1 C 74 % 0 lf 1010,6 hPa 0,0 l/m 0 min 0 min 0 W/m 6,3 km/h (2 Bft) 100,00 %
29.06.2016 22:48 18,0 C 17,8 C 16,1 C 74 % 0 lf 1010,6 hPa 0,0 l/m 0 min 0 min 0 W/m 4,2 km/h (1 Bft) 97,83 %
29.06.2016 22:50 18,0 C 17,8 C 16,1 C 74 % 0 lf 1010,6 hPa 0,0 l/m 0 min 0 min 0 W/m 8,4 km/h (2 Bft) 97,87 %
29.06.2016 22:52 17,9 C 17,8 C 16,1 C 74 % 0 lf 1010,4 hPa 0,0 l/m 0 min 0 min 0 W/m 6,3 km/h (2 Bft) 98,00 %
29.06.2016 22:54 17,9 C 17,8 C 16,1 C 74 % 0 lf 1010,6 hPa 0,0 l/m 0 min 0 min 0 W/m 6,3 km/h (2 Bft) 100,00 %
29.06.2016 22:56 17,9 C 17,2 C 16,1 C 74 % 0 lf 1010,6 hPa 0,0 l/m 0 min 0 min 0 W/m 2,1 km/h (1 Bft) 97,87 %
29.06.2016 22:58 17,9 C 17,2 C 15,6 C 74 % 0 lf 1010,6 hPa 0,0 l/m 0 min 0 min 0 W/m 2,1 km/h (1 Bft) 100,00 %
29.06.2016 23:00 17,9 C 17,2 C 15,6 C 75 % 0 lf 1010,6 hPa 0,0 l/m 0 min 0 min 0 W/m 4,2 km/h (1 Bft) 100,00 %
29.06.2016 23:02 17,9 C 17,2 C 15,6 C 75 % 0 lf 1010,6 hPa 0,0 l/m 0 min 0 min 0 W/m 4,2 km/h (1 Bft) 100,00 %
29.06.2016 23:04 17,9 C 17,2 C 15,6 C 75 % 0 lf 1010,5 hPa 0,0 l/m 0 min 0 min 0 W/m 4,2 km/h (1 Bft) 98,31 %
29.06.2016 23:06 17,9 C 17,2 C 15,6 C 75 % 0 lf 1010,6 hPa 0,0 l/m 0 min 0 min 0 W/m 4,2 km/h (1 Bft) 100,00 %
29.06.2016 23:08 17,9 C 17,2 C 15,6 C 75 % 0 lf 1010,6 hPa 0,0 l/m 0 min 0 min 0 W/m 4,2 km/h (1 Bft) 100,00 %
29.06.2016 23:10 17,8 C 17,2 C 15,6 C 75 % 0 lf 1010,6 hPa 0,0 l/m 0 min 0 min 0 W/m 4,2 km/h (1 Bft) 95,74 %
29.06.2016 23:12 17,8 C 17,2 C 15,6 C 75 % 0 lf 1010,6 hPa 0,0 l/m 0 min 0 min 0 W/m 2,1 km/h (1 Bft) 100,00 %
29.06.2016 23:14 17,8 C 17,2 C 15,6 C 75 % 0 lf 1010,6 hPa 0,0 l/m 0 min 0 min 0 W/m 2,1 km/h (1 Bft) 100,00 %
29.06.2016 23:16 17,8 C 17,2 C 15,6 C 76 % 0 lf 1010,5 hPa 0,0 l/m 0 min 0 min 0 W/m 2,1 km/h (1 Bft) 100,00 %
29.06.2016 23:18 17,8 C 17,2 C 15,6 C 76 % 0 lf 1010,5 hPa 0,0 l/m 0 min 0 min 0 W/m 6,3 km/h (2 Bft) 100,00 %
29.06.2016 23:20 17,7 C 17,2 C 15,6 C 76 % 0 lf 1010,5 hPa 0,0 l/m 0 min 2 min 0 W/m 6,3 km/h (2 Bft) 97,87 %
29.06.2016 23:22 17,7 C 17,2 C 15,6 C 77 % 0 lf 1010,4 hPa 0,0 l/m 0 min 2 min 0 W/m 6,3 km/h (2 Bft) 100,00 %
29.06.2016 23:24 17,7 C 17,2 C 15,6 C 77 % 0 lf 1010,4 hPa 0,0 l/m 0 min 2 min 0 W/m 8,4 km/h (2 Bft) 100,00 %
29.06.2016 23:26 17,7 C 17,2 C 15,6 C 77 % 0 lf 1010,4 hPa 0,0 l/m 0 min 0 min 0 W/m 8,4 km/h (2 Bft) 95,65 %
29.06.2016 23:28 17,7 C 17,2 C 15,6 C 78 % 0 lf 1010,4 hPa 0,0 l/m 0 min 2 min 0 W/m 6,3 km/h (2 Bft) 100,00 %
29.06.2016 23:30 17,7 C 16,7 C 15,6 C 78 % 0 lf 1010,4 hPa 0,0 l/m 0 min 0 min 0 W/m 6,3 km/h (2 Bft) 97,87 %
29.06.2016 23:32 17,7 C 16,7 C 15,0 C 78 % 0 lf 1010,4 hPa 0,0 l/m 0 min 0 min 0 W/m 4,2 km/h (1 Bft) 97,87 %
29.06.2016 23:34 17,6 C 16,7 C 15,0 C 78 % 1 lf 1010,4 hPa 0,0 l/m 0 min 2 min 0 W/m 6,3 km/h (2 Bft) 95,74 %
29.06.2016 23:36 17,6 C 16,7 C 15,0 C 78 % 0 lf 1010,4 hPa 0,0 l/m 0 min 2 min 0 W/m 6,3 km/h (2 Bft) 92,86 %
29.06.2016 23:38 17,6 C 16,7 C 15,0 C 78 % 0 lf 1010,4 hPa 0,0 l/m 0 min 0 min 0 W/m 6,3 km/h (2 Bft) 93,62 %
29.06.2016 23:40 17,6 C 16,7 C 15,0 C 79 % 0 lf 1010,4 hPa 0,0 l/m 0 min 0 min 0 W/m 4,2 km/h (1 Bft) 93,62 %
29.06.2016 23:42 17,6 C 16,7 C 15,0 C 79 % 0 lf 1010,4 hPa 0,0 l/m 0 min 0 min 0 W/m 6,3 km/h (2 Bft) 93,62 %
29.06.2016 23:44 17,6 C 16,7 C 15,0 C 79 % 0 lf 1010,5 hPa 0,0 l/m 0 min 2 min 0 W/m 6,3 km/h (2 Bft) 89,36 %
29.06.2016 23:46 17,5 C 16,7 C 15,0 C 79 % 0 lf 1010,5 hPa 0,0 l/m 0 min 2 min 0 W/m 6,3 km/h (2 Bft) 93,62 %
29.06.2016 23:48 17,4 C 16,7 C 15,0 C 79 % 0 lf 1010,4 hPa 0,0 l/m 0 min 2 min 0 W/m 8,4 km/h (2 Bft) 91,30 %
29.06.2016 23:50 17,4 C 16,1 C 14,4 C 79 % 0 lf 1010,4 hPa 0,0 l/m 0 min 2 min 0 W/m 8,4 km/h (2 Bft) 93,62 %
29.06.2016 23:52 17,4 C 16,1 C 14,4 C 80 % 0 lf 1010,4 hPa 0,0 l/m 0 min 2 min 0 W/m 8,4 km/h (2 Bft) 93,62 %
29.06.2016 23:54 17,3 C 16,1 C 14,4 C 80 % 0 lf 1010,3 hPa 0,0 l/m 0 min 2 min 0 W/m 10,5 km/h (2 Bft) 91,49 %
29.06.2016 23:56 17,3 C 16,1 C 14,4 C 80 % 0 lf 1010,3 hPa 0,0 l/m 0 min 0 min 0 W/m 8,4 km/h (2 Bft) 95,74 %
29.06.2016 23:58 17,3 C 16,1 C 14,4 C 80 % 0 lf 1010,4 hPa 0,0 l/m 0 min 2 min 0 W/m 10,5 km/h (2 Bft) 93,62 %
_ Min-Zeit 06:42 06:18 06:18 16:56 00:00 01:46 - - - - 00:12 03:42
Minimum _ 13,7 C 13,3 C 12,2 C 55 % 0 lf 1009,1 hPa - - - - 0,0 km/h (0 Bft) 86,96 %
_ Max-Zeit 16:02 15:54 15:56 02:38 00:26 12:14 00:48 05:54 00:12 13:48 10:24 01:04
Maximum _ 22,3 C 29,4 C 31,7 C 96 % 15 lf 1012,8 hPa 0,4 l/m 2 min 2 min 1134 W/m 46,0 km/h
W-SW (6 Bft)
100,00 %
Durchschnitt _ 18,0 C 19,3 C 18,2 C 78 % 4 lf 1011,0 hPa #6,2 l/m #8:08 h #2:48 h 384 W/m 18,2 km/h (3 Bft) 96,25 %
© 2016 W. Hausmann